EW4266 Weather Reports


time (UTC)temp
F
wind
direction
speed
knots
gust
knots
rain 1hr
in
rain 24hr
in
rain mn
in
humidity
%
barometer
mb
20260902145429 70 165 4.3 7.8 0.00 0.00 0.00 75 1019.6
20260902145351 70 127 4.3 7.8 0.00 0.00 0.00 76 1019.6
20260902145233 70 179 5.2 7.8 0.00 0.00 0.00 75 1019.6
20260902145157 70 159 5.2 7.8 0.00 0.00 0.00 75 1019.7
20260902145103 70 193 6.1 8.7 0.00 0.00 0.00 75 1019.7
20260902145025 70 141 5.2 8.7 0.00 0.00 0.00 76 1019.7
20260902144828 70 188 3.5 8.7 0.00 0.00 0.00 75 1019.7
20260902144729 70 147 4.3 8.7 0.00 0.00 0.00 76 1019.8
20260902144633 70 190 5.2 8.7 0.00 0.00 0.00 75 1019.8
20260902144556 70 185 5.2 8.7 0.00 0.00 0.00 75 1019.8
20260902144517 70 137 5.2 8.7 0.00 0.00 0.00 75 1019.9
20260902144421 70 167 6.1 8.7 0.00 0.00 0.00 75 1019.9
20260902144322 70 153 6.1 8.7 0.00 0.00 0.00 75 1019.9
20260902144136 70 163 5.2 7.8 0.00 0.00 0.00 75 1020.0
20260902144030 70 157 3.5 9.6 0.00 0.00 0.00 76 1019.9
20260902143951 70 165 2.6 9.6 0.00 0.00 0.00 76 1020.0
20260902143855 70 189 2.6 9.6 0.00 0.00 0.00 76 1020.0
20260902143818 70 156 2.6 9.6 0.00 0.00 0.00 76 1020.0
20260902143647 70 176 2.6 9.6 0.00 0.00 0.00 77 1020.0
20260902143602 69 176 4.3 9.6 0.00 0.00 0.00 77 1020.1
20260902143431 69 187 5.2 9.6 0.00 0.00 0.00 74 1020.0
20260902143332 69 182 6.1 9.6 0.00 0.00 0.00 74 1020.0
20260902143135 69 171 4.3 7.8 0.00 0.00 0.00 75 1020.0
20260902143054 69 169 4.3 7.8 0.00 0.00 0.00 75 1020.0
20260902142940 69 167 4.3 7.8 0.00 0.00 0.00 76 1020.0
20260902142902 69 167 4.3 7.8 0.00 0.00 0.00 76 1020.0
20260902142804 69 223 3.5 7.8 0.00 0.00 0.00 76 1019.9
20260902142705 69 209 1.7 7.0 0.00 0.00 0.00 77 1019.9
20260902142627 69 147 1.7 7.0 0.00 0.00 0.00 77 1019.9
20260902142429 69 174 2.6 7.0 0.00 0.00 0.00 76 1019.9
20260902142331 69 225 2.6 7.0 0.00 0.00 0.00 76 1019.9
20260902142234 69 168 2.6 7.0 0.00 0.00 0.00 77 1019.9
20260902142157 69 191 3.5 7.0 0.00 0.00 0.00 76 1019.9
20260902142026 69 154 3.5 7.0 0.00 0.00 0.00 76 1019.9
20260902141923 69 161 2.6 7.8 0.00 0.00 0.00 77 1019.9
20260902141753 69 213 2.6 7.0 0.00 0.00 0.00 76 1020.0
20260902141714 69 159 2.6 7.0 0.00 0.00 0.00 76 1019.9
20260902141558 69 149 2.6 7.0 0.00 0.00 0.00 76 1020.0
20260902141458 69 119 2.6 7.0 0.00 0.00 0.00 77 1019.9
20260902141327 69 163 3.5 10.4 0.00 0.00 0.00 76 1019.9
20260902141222 69 163 4.3 10.4 0.00 0.00 0.00 77 1019.9
20260902141052 69 192 3.5 10.4 0.00 0.00 0.00 77 1019.8
20260902141015 69 184 2.6 10.4 0.00 0.00 0.00 78 1019.8
20260902140844 69 157 1.7 10.4 0.00 0.00 0.00 77 1019.8
20260902140738 69 159 2.6 10.4 0.00 0.00 0.00 77 1019.8
20260902140625 69 174 5.2 10.4 0.00 0.00 0.00 76 1019.8
20260902140546 69 134 5.2 10.4 0.00 0.00 0.00 76 1019.8
20260902140509 69 152 4.3 7.0 0.00 0.00 0.00 76 1019.7
20260902140413 69 207 2.6 5.2 0.00 0.00 0.00 77 1019.8
20260902140335 69 205 2.6 5.2 0.00 0.00 0.00 77 1019.8
20260902140204 69 171 3.5 6.1 0.00 0.00 0.00 76 1019.6
20260902140118 69 200 2.6 6.1 0.00 0.00 0.00 76 1019.6
20260902135929 69 193 1.7 6.1 0.00 0.00 0.00 77 1019.5
20260902135844 69 196 0.9 6.1 0.00 0.00 0.00 77 1019.4
20260902135634 69 225 1.7 6.1 0.00 0.00 0.00 77 1019.4
20260902135534 69 208 2.6 7.0 0.00 0.00 0.00 77 1019.4
20260902135429 69 188 2.6 7.0 0.00 0.00 0.00 77 1019.3
20260902135350 69 163 2.6 7.0 0.00 0.00 0.00 78 1019.3
20260902135142 69 188 1.7 7.0 0.00 0.00 0.00 77 1019.4
20260902135055 69 188 2.6 7.0 0.00 0.00 0.00 77 1019.4
20260902134833 69 190 3.5 7.0 0.00 0.00 0.00 77 1019.4
20260902134733 69 161 4.3 7.0 0.00 0.00 0.00 76 1019.4
20260902134536 69 153 3.5 7.0 0.00 0.00 0.00 77 1019.4
20260902134457 69 146 3.5 5.2 0.00 0.00 0.00 76 1019.4
20260902134326 69 179 3.5 5.2 0.00 0.00 0.00 76 1019.4
20260902134240 69 193 2.6 5.2 0.00 0.00 0.00 77 1019.4
20260902134110 69 163 1.7 4.3 0.00 0.00 0.00 76 1019.5
20260902134031 69 184 1.7 4.3 0.00 0.00 0.00 76 1019.5
20260902133835 69 196 2.6 6.1 0.00 0.00 0.00 77 1019.5
20260902133755 69 170 2.6 6.1 0.00 0.00 0.00 77 1019.5
20260902133658 69 168 1.7 6.1 0.00 0.00 0.00 77 1019.5
20260902133540 69 113 2.6 6.1 0.00 0.00 0.00 77 1019.5
20260902133442 69 168 2.6 6.1 0.00 0.00 0.00 76 1019.5
20260902133347 69 157 2.6 6.1 0.00 0.00 0.00 76 1019.5
20260902133229 69 157 2.6 6.1 0.00 0.00 0.00 77 1019.6
20260902133149 69 193 2.6 6.1 0.00 0.00 0.00 76 1019.5
20260902133109 69 151 3.5 6.1 0.00 0.00 0.00 76 1019.6
20260902133014 69 122 2.6 6.1 0.00 0.00 0.00 76 1019.5
20260902132914 69 164 2.6 6.1 0.00 0.00 0.00 76 1019.5
20260902132729 69 126 3.5 5.2 0.00 0.00 0.00 77 1019.4
20260902132630 69 172 2.6 5.2 0.00 0.00 0.00 76 1019.3
20260902132523 69 140 3.5 6.1 0.00 0.00 0.00 76 1019.4
20260902132429 69 186 3.5 6.1 0.00 0.00 0.00 76 1019.3
20260902132325 69 165 4.3 7.0 0.00 0.00 0.00 76 1019.3
20260902132246 69 161 3.5 7.0 0.00 0.00 0.00 76 1019.3
20260902132141 69 146 3.5 7.0 0.00 0.00 0.00 76 1019.3
20260902132025 69 136 3.5 7.0 0.00 0.00 0.00 76 1019.3
20260902131947 69 155 2.6 7.0 0.00 0.00 0.00 76 1019.3
20260902131755 69 199 3.5 7.0 0.00 0.00 0.00 76 1019.3
20260902131722 69 195 4.3 7.0 0.00 0.00 0.00 76 1019.3
20260902131532 69 187 4.3 7.0 0.00 0.00 0.00 75 1019.3
20260902131440 70 159 5.2 7.0 0.00 0.00 0.00 75 1019.2
20260902131323 70 178 4.3 7.8 0.00 0.00 0.00 75 1019.2
20260902131244 70 186 4.3 7.8 0.00 0.00 0.00 76 1019.2
20260902131114 70 200 4.3 7.8 0.00 0.00 0.00 75 1019.0
20260902131027 70 163 4.3 5.2 0.00 0.00 0.00 75 1019.0
20260902130857 70 170 2.6 7.0 0.00 0.00 0.00 76 1019.0
20260902130820 70 136 2.6 7.0 0.00 0.00 0.00 77 1019.0
20260902130623 69 146 1.7 7.0 0.00 0.00 0.00 78 1019.0
20260902130525 69 167 2.6 7.0 0.00 0.00 0.00 77 1019.0
20260902130433 69 186 3.5 7.0 0.00 0.00 0.00 75 1019.0
20260902130333 69 144 3.5 7.0 0.00 0.00 0.00 76 1019.0
20260902130136 69 202 4.3 7.0 0.00 0.00 0.00 76 1019.0
20260902130037 69 142 5.2 8.7 0.00 0.00 0.00 76 1019.1
20260902125941 69 200 4.3 7.0 0.00 0.00 0.00 76 1019.1
20260902125902 69 113 3.5 6.1 0.00 0.00 0.00 76 1019.1
20260902125710 69 134 3.5 6.1 0.00 0.00 0.00 76 1019.1
20260902125627 69 171 3.5 6.1 0.00 0.00 0.00 76 1019.1
20260902125456 69 128 2.6 6.1 0.00 0.00 0.00 76 1019.2
20260902125417 69 169 3.5 6.1 0.00 0.00 0.00 76 1019.2
20260902125242 69 180 4.3 6.1 0.00 0.00 0.00 76 1019.2
20260902125203 69 190 4.3 6.1 0.00 0.00 0.00 76 1019.2
20260902125013 69 149 3.5 6.1 0.00 0.00 0.00 75 1019.2
20260902124927 69 159 3.5 7.0 0.00 0.00 0.00 76 1019.2
20260902124759 69 173 3.5 7.0 0.00 0.00 0.00 76 1019.1
20260902124720 69 198 2.6 7.0 0.00 0.00 0.00 77 1019.1
20260902124523 69 213 1.7 7.0 0.00 0.00 0.00 76 1019.2
20260902124446 69 165 2.6 7.0 0.00 0.00 0.00 76 1019.2
20260902124349 69 154 2.6 7.0 0.00 0.00 0.00 76 1019.2
20260902124250 69 172 4.3 7.0 0.00 0.00 0.00 76 1019.2
20260902124031 69 167 3.5 7.0 0.00 0.00 0.00 76 1019.2
20260902123938 69 194 2.6 7.0 0.00 0.00 0.00 77 1019.2
20260902123823 69 214 2.6 7.0 0.00 0.00 0.00 77 1019.2
20260902123744 69 205 2.6 7.0 0.00 0.00 0.00 77 1019.2
20260902123614 69 168 1.7 7.0 0.00 0.00 0.00 79 1019.2
20260902123529 69 255 2.6 7.0 0.00 0.00 0.00 78 1019.2
20260902123340 69 168 4.3 7.0 0.00 0.00 0.00 77 1019.1
20260902123254 68 169 4.3 7.0 0.00 0.00 0.00 77 1019.2
20260902123043 68 209 3.5 7.0 0.00 0.00 0.00 77 1019.1
20260902122941 68 149 3.5 7.0 0.00 0.00 0.00 78 1019.0
20260902122824 68 168 3.5 7.0 0.00 0.00 0.00 77 1019.1
20260902122744 68 175 4.3 7.0 0.00 0.00 0.00 78 1019.0
20260902122615 68 196 3.5 7.0 0.00 0.00 0.00 77 1019.1
20260902122527 68 173 3.5 7.0 0.00 0.00 0.00 78 1019.1
20260902122357 68 147 3.5 7.0 0.00 0.00 0.00 78 1019.1
20260902122320 68 173 1.7 7.8 0.00 0.00 0.00 80 1019.1
20260902122123 68 140 0.9 2.6 0.00 0.00 0.00 80 1019.1
20260902122026 68 163 0.9 2.6 0.00 0.00 0.00 82 1019.1
20260902121904 68 162 0.9 2.6 0.00 0.00 0.00 81 1019.2
20260902121830 68 162 0.9 2.6 0.00 0.00 0.00 81 1019.2
20260902121632 67 162 0.9 3.5 0.00 0.00 0.00 80 1019.2
20260902121533 67 155 0.0 2.6 0.00 0.00 0.00 80 1019.2
20260902121437 67 151 0.0 2.6 0.00 0.00 0.00 81 1019.2
20260902121357 67 151 0.0 2.6 0.00 0.00 0.00 81 1019.2
20260902121319 67 151 0.9 2.6 0.00 0.00 0.00 80 1019.2
20260902121142 67 151 0.0 2.6 0.00 0.00 0.00 81 1019.2
20260902121103 67 151 0.0 2.6 0.00 0.00 0.00 81 1019.2
20260902121029 67 151 0.9 2.6 0.00 0.00 0.00 81 1019.2
20260902120908 67 151 0.9 2.6 0.00 0.00 0.00 81 1019.3
20260902120834 67 152 0.9 2.6 0.00 0.00 0.00 81 1019.3
20260902120636 67 152 0.9 1.7 0.00 0.00 0.00 80 1019.4
20260902120540 67 152 0.9 1.7 0.00 0.00 0.00 81 1019.4
20260902120439 67 152 0.9 2.6 0.00 0.00 0.00 82 1019.4
20260902120340 67 152 0.9 2.6 0.00 0.00 0.00 82 1019.4
20260902120209 67 152 0.9 2.6 0.00 0.00 0.00 81 1019.5
20260902120124 67 152 0.9 2.6 0.00 0.00 0.00 81 1019.5
20260902115935 67 151 0.0 2.6 0.00 0.00 0.00 82 1019.4
20260902115829 67 151 0.0 2.6 0.00 0.00 0.00 81 1019.4
20260902115755 67 151 0.0 2.6 0.00 0.00 0.00 81 1019.4
20260902115657 67 151 0.9 2.6 0.00 0.00 0.00 81 1019.4
20260902115619 67 151 0.9 2.6 0.00 0.00 0.00 81 1019.4
20260902115447 67 189 0.9 2.6 0.00 0.00 0.00 81 1019.4
20260902115342 67 162 1.7 2.6 0.00 0.00 0.00 81 1019.4
20260902115225 67 162 1.7 2.6 0.00 0.00 0.00 81 1019.4
20260902115146 67 146 0.9 2.6 0.00 0.00 0.00 81 1019.3
20260902115108 67 180 0.9 2.6 0.00 0.00 0.00 81 1019.3
20260902115010 67 180 0.0 2.6 0.00 0.00 0.00 82 1019.3
20260902114932 67 180 0.0 2.6 0.00 0.00 0.00 82 1019.3
20260902114719 67 213 0.0 2.6 0.00 0.00 0.00 82 1019.4
20260902114624 67 213 0.9 2.6 0.00 0.00 0.00 81 1019.4
20260902114525 67 213 0.9 2.6 0.00 0.00 0.00 81 1019.4
20260902114447 67 211 0.9 2.6 0.00 0.00 0.00 82 1019.4
20260902114328 67 211 0.9 2.6 0.00 0.00 0.00 81 1019.4
20260902114250 67 207 0.0 2.6 0.00 0.00 0.00 82 1019.4
20260902114056 67 207 0.0 2.6 0.00 0.00 0.00 82 1019.3
20260902114012 67 207 0.0 2.6 0.00 0.00 0.00 82 1019.3
20260902113800 67 207 0.0 2.6 0.00 0.00 0.00 81 1019.3
20260902113722 66 225 0.0 2.6 0.00 0.00 0.00 82 1019.3
20260902113528 66 225 0.9 2.6 0.00 0.00 0.00 82 1019.3
20260902113449 66 225 1.7 2.6 0.00 0.00 0.00 82 1019.3
20260902113332 66 224 0.9 2.6 0.00 0.00 0.00 83 1019.4
20260902113253 66 158 0.0 0.9 0.00 0.00 0.00 85 1019.3
20260902113034 66 158 0.0 0.9 0.00 0.00 0.00 83 1019.2
20260902112935 66 158 0.0 0.9 0.00 0.00 0.00 84 1019.3
20260902112836 66 158 0.0 0.9 0.00 0.00 0.00 84 1019.3
20260902112758 66 158 0.0 0.0 0.00 0.00 0.00 85 1019.3
20260902112628 66 158 0.0 0.0 0.00 0.00 0.00 84 1019.3
20260902112527 66 158 0.0 0.0 0.00 0.00 0.00 83 1019.3
20260902112356 66 158 0.0 0.0 0.00 0.00 0.00 83 1019.3
20260902112317 66 158 0.0 0.0 0.00 0.00 0.00 84 1019.3
20260902112159 66 158 0.0 0.0 0.00 0.00 0.00 84 1019.3
20260902112122 66 158 0.0 0.0 0.00 0.00 0.00 84 1019.3
20260902112044 66 158 0.0 0.0 0.00 0.00 0.00 83 1019.3
20260902111908 66 158 0.0 0.0 0.00 0.00 0.00 85 1019.3
20260902111829 66 158 0.0 0.0 0.00 0.00 0.00 84 1019.3
20260902111659 66 158 0.0 0.0 0.00 0.00 0.00 85 1019.4
20260902111531 66 158 0.0 0.0 0.00 0.00 0.00 85 1019.4
20260902111433 66 158 0.0 1.7 0.00 0.00 0.00 84 1019.4
20260902111330 66 158 0.0 1.7 0.00 0.00 0.00 84 1019.4
20260902111250 66 158 0.0 1.7 0.00 0.00 0.00 84 1019.4
20260902111154 66 158 0.0 1.7 0.00 0.00 0.00 84 1019.4
20260902111117 66 158 0.0 1.7 0.00 0.00 0.00 83 1019.4
20260902110946 66 158 0.0 1.7 0.00 0.00 0.00 83 1019.4
20260902110841 66 158 0.0 1.7 0.00 0.00 0.00 84 1019.4
20260902110724 66 158 0.0 1.7 0.00 0.00 0.00 83 1019.3
20260902110644 66 158 0.0 1.7 0.00 0.00 0.00 83 1019.3
20260902110606 66 158 0.0 1.7 0.00 0.00 0.00 84 1019.4
20260902110510 66 158 0.0 0.9 0.00 0.00 0.00 84 1019.4
20260902110437 66 158 0.0 0.9 0.00 0.00 0.00 84 1019.4
20260902110307 66 158 0.0 0.9 0.00 0.00 0.00 83 1019.4
20260902110229 66 158 0.0 0.9 0.00 0.00 0.00 83 1019.4
20260902110031 66 158 0.0 1.7 0.00 0.00 0.00 84 1019.5
20260902105952 66 158 0.0 1.7 0.00 0.00 0.00 83 1019.4
20260902105855 66 158 0.0 1.7 0.00 0.02 0.00 84 1019.4
20260902105817 66 158 0.0 1.7 0.00 0.02 0.00 84 1019.4
20260902105646 66 158 0.0 1.7 0.00 0.02 0.00 84 1019.4
20260902105540 66 158 0.0 1.7 0.00 0.02 0.00 83 1019.4
20260902105440 66 158 0.0 1.7 0.00 0.02 0.00 83 1019.4
20260902105354 66 158 0.0 1.7 0.00 0.02 0.00 83 1019.4
20260902105322 66 158 0.0 1.7 0.00 0.02 0.00 83 1019.4
20260902105243 66 158 0.0 0.9 0.00 0.02 0.00 84 1019.4
20260902105105 66 158 0.0 0.9 0.00 0.02 0.00 84 1019.4
20260902105027 66 158 0.0 0.9 0.00 0.02 0.00 84 1019.4
20260902104838 66 158 0.0 0.9 0.00 0.02 0.00 84 1019.4
20260902104720 66 158 0.0 0.9 0.00 0.02 0.00 83 1019.4
20260902104651 66 158 0.0 1.7 0.00 0.02 0.00 83 1019.4
20260902104554 66 158 0.0 1.7 0.00 0.02 0.00 83 1019.3
20260902104514 66 158 0.0 1.7 0.00 0.02 0.00 82 1019.4
20260902104414 66 158 0.0 1.7 0.00 0.02 0.00 82 1019.4
20260902104319 66 158 0.0 1.7 0.00 0.02 0.00 83 1019.3
20260902104244 66 158 0.0 1.7 0.00 0.02 0.00 83 1019.3
20260902104115 66 158 0.0 1.7 0.00 0.02 0.00 83 1019.2
20260902104009 66 158 0.0 2.6 0.00 0.02 0.00 83 1019.2
20260902103816 66 158 0.0 2.6 0.00 0.02 0.00 83 1019.2
20260902103738 66 158 0.0 2.6 0.00 0.02 0.00 83 1019.2
20260902103606 66 158 0.0 2.6 0.00 0.02 0.00 82 1019.2
20260902103531 66 158 0.9 2.6 0.00 0.02 0.00 82 1019.2
20260902103401 66 158 0.9 2.6 0.00 0.02 0.00 83 1019.1
20260902103322 66 158 1.7 2.6 0.00 0.02 0.00 83 1019.1
20260902103053 66 159 0.9 2.6 0.00 0.02 0.00 82 1019.1
20260902103027 66 159 0.9 2.6 0.00 0.02 0.00 83 1019.1
20260902102855 66 204 0.0 2.6 0.00 0.02 0.00 83 1019.2
20260902102749 66 204 0.9 2.6 0.00 0.02 0.00 83 1019.2
20260902102622 66 204 0.9 3.5 0.00 0.02 0.00 84 1019.2
20260902102523 66 178 0.9 3.5 0.00 0.02 0.00 83 1019.2
20260902102326 66 178 0.9 3.5 0.00 0.02 0.00 83 1019.2
20260902102248 66 178 0.9 3.5 0.00 0.02 0.00 83 1019.1
20260902102131 66 171 0.9 3.5 0.00 0.02 0.00 82 1019.1
20260902102051 66 169 0.0 3.5 0.00 0.02 0.00 84 1019.1
20260902102013 66 169 0.9 3.5 0.00 0.02 0.00 83 1019.0
20260902101853 66 169 1.7 3.5 0.00 0.02 0.00 82 1019.0
20260902101753 66 169 1.7 3.5 0.00 0.02 0.00 83 1019.0
20260902101715 66 175 0.9 2.6 0.00 0.02 0.00 83 1019.0
20260902101619 66 154 0.9 2.6 0.00 0.02 0.00 83 1019.0
20260902101544 66 154 0.0 3.5 0.00 0.02 0.00 83 1019.0
20260902101415 66 154 0.9 3.5 0.00 0.02 0.00 83 1019.0
20260902101329 66 154 0.9 3.5 0.00 0.02 0.00 83 1019.0
20260902101140 66 151 1.7 3.5 0.00 0.02 0.00 83 1019.0
20260902101035 66 146 0.9 3.5 0.00 0.02 0.00 83 1019.0
20260902100929 66 174 0.9 3.5 0.00 0.02 0.00 83 1019.0
20260902100831 66 169 0.9 3.5 0.00 0.02 0.00 83 1019.0
20260902100731 66 169 0.9 3.5 0.00 0.02 0.00 83 1019.0
20260902100636 66 174 0.9 2.6 0.00 0.02 0.00 83 1019.0
20260902100557 66 174 0.9 2.6 0.00 0.02 0.00 84 1018.9
20260902100500 66 174 0.0 2.6 0.00 0.02 0.00 83 1019.0
20260902100422 66 174 0.0 2.6 0.00 0.02 0.00 83 1019.0
20260902100224 66 174 0.9 2.6 0.00 0.02 0.00 83 1018.9
20260902100125 66 161 0.0 2.6 0.00 0.02 0.00 83 1019.0
20260902100029 66 161 0.9 2.6 0.00 0.02 0.00 83 1018.9
20260902095951 66 161 0.9 2.6 0.00 0.02 0.00 83 1018.9
20260902095820 66 191 0.9 2.6 0.00 0.02 0.00 83 1018.9
20260902095734 66 191 0.9 2.6 0.00 0.02 0.00 83 1018.9
20260902095602 66 191 0.9 2.6 0.00 0.02 0.00 83 1018.9
20260902095529 66 194 0.9 2.6 0.00 0.02 0.00 83 1018.9
20260902095331 66 171 0.9 2.6 0.00 0.02 0.00 83 1018.8
20260902095252 66 171 1.7 2.6 0.00 0.02 0.00 83 1018.8
20260902095155 66 179 1.7 2.6 0.00 0.02 0.00 83 1018.8
20260902095036 66 186 0.9 2.6 0.00 0.02 0.00 84 1018.8
20260902094958 66 165 0.0 2.6 0.00 0.02 0.00 84 1018.8
20260902094900 66 165 0.0 4.3 0.00 0.02 0.00 84 1018.8
20260902094822 66 165 0.0 4.3 0.00 0.02 0.00 84 1018.8
20260902094626 66 165 0.9 4.3 0.00 0.02 0.00 83 1018.7
20260902094532 66 165 0.9 4.3 0.00 0.02 0.00 84 1018.8
20260902094436 66 159 1.7 4.3 0.00 0.02 0.00 84 1018.7
20260902094336 66 157 1.7 4.3 0.00 0.02 0.00 84 1018.7
20260902094207 66 200 1.7 4.3 0.00 0.02 0.00 85 1018.7
20260902094121 66 194 1.7 4.3 0.00 0.02 0.00 85 1018.7
20260902093931 66 171 0.9 1.7 0.00 0.02 0.00 84 1018.8
20260902093847 66 171 0.0 1.7 0.00 0.02 0.00 84 1018.8
20260902093715 66 193 0.0 1.7 0.00 0.02 0.00 84 1018.8
20260902093638 66 193 0.0 1.7 0.00 0.02 0.00 85 1018.8
20260902093440 66 193 0.0 1.7 0.00 0.02 0.00 85 1018.9
20260902093346 66 192 0.0 1.7 0.00 0.02 0.00 85 1018.9
20260902093251 66 191 0.0 1.7 0.00 0.02 0.00 85 1018.9
20260902093212 66 191 0.0 1.7 0.00 0.02 0.00 85 1018.9
20260902093112 66 191 0.0 1.7 0.00 0.02 0.00 85 1018.9
20260902093014 66 191 0.9 1.7 0.00 0.02 0.00 85 1018.9
20260902092936 66 191 0.9 1.7 0.00 0.02 0.00 85 1018.9
20260902092806 66 163 0.9 1.7 0.00 0.02 0.00 84 1018.9
20260902092722 66 165 0.0 2.6 0.00 0.02 0.00 86 1018.9
20260902092644 66 148 0.0 0.9 0.00 0.02 0.00 86 1018.9
20260902092513 66 148 0.0 0.9 0.00 0.02 0.00 85 1018.8
20260902092428 66 148 0.0 0.9 0.00 0.02 0.00 86 1018.8
20260902092259 66 148 0.0 0.9 0.00 0.02 0.00 85 1018.8
20260902092220 66 148 0.0 0.9 0.00 0.02 0.00 86 1018.8
20260902092027 66 148 0.0 0.9 0.00 0.02 0.00 86 1018.8
20260902091929 66 148 0.0 0.9 0.00 0.02 0.00 86 1018.8
20260902091833 66 148 0.0 0.9 0.00 0.02 0.00 86 1018.8
20260902091755 66 148 0.0 0.9 0.00 0.02 0.00 86 1018.7
20260902091604 66 148 0.0 0.0 0.00 0.02 0.00 86 1018.7
20260902091520 66 148 0.0 0.9 0.00 0.02 0.00 86 1018.7
20260902091319 66 148 0.0 0.9 0.00 0.02 0.00 86 1018.7
20260902091141 66 148 0.0 0.9 0.00 0.02 0.00 86 1018.8
20260902091042 66 148 0.0 1.7 0.00 0.02 0.00 86 1018.8
20260902090928 66 148 0.0 1.7 0.00 0.02 0.00 85 1018.8
20260902090859 66 148 0.0 2.6 0.00 0.02 0.00 86 1018.8
20260902090758 66 148 0.0 2.6 0.00 0.02 0.00 85 1018.8
20260902090641 66 148 0.0 2.6 0.00 0.02 0.00 85 1018.8
20260902090541 66 148 0.0 2.6 0.00 0.02 0.00 85 1018.8
20260902090456 66 148 0.0 2.6 0.00 0.02 0.00 86 1018.8
20260902090428 66 148 0.0 2.6 0.00 0.02 0.00 85 1018.8
20260902090226 66 175 0.9 2.6 0.00 0.02 0.00 85 1018.8
20260902090120 66 175 0.9 2.6 0.00 0.02 0.00 85 1018.7
20260902085948 66 159 0.9 2.6 0.00 0.02 0.00 86 1018.7
20260902085849 66 159 0.0 2.6 0.00 0.02 0.00 86 1018.7
20260902085715 66 159 0.0 2.6 0.00 0.02 0.00 87 1018.7
20260902085648 66 159 0.0 2.6 0.00 0.02 0.00 86 1018.7
20260902085510 66 159 0.0 2.6 0.00 0.02 0.00 86 1018.6
20260902085433 66 159 0.0 2.6 0.00 0.02 0.00 86 1018.6
20260902085305 66 159 0.9 2.6 0.00 0.02 0.00 85 1018.6
20260902085201 66 159 0.0 2.6 0.00 0.02 0.00 86 1018.6
20260902085043 66 159 0.0 1.7 0.00 0.02 0.00 87 1018.6
20260902085003 66 159 0.0 1.7 0.00 0.02 0.00 86 1018.5
20260902084903 66 159 0.0 1.7 0.00 0.02 0.00 86 1018.6
20260902084806 66 159 0.0 1.7 0.00 0.02 0.00 86 1018.6
20260902084727 66 159 0.0 1.7 0.00 0.02 0.00 86 1018.6
20260902084557 66 159 0.0 1.7 0.00 0.02 0.00 86 1018.6
20260902084517 66 159 0.0 1.7 0.00 0.02 0.00 86 1018.6
20260902084347 66 159 0.0 1.7 0.00 0.02 0.00 86 1018.6
20260902084308 66 159 0.0 1.7 0.00 0.02 0.00 86 1018.7
20260902084137 66 159 0.0 1.7 0.00 0.02 0.00 86 1018.7
20260902084032 66 159 0.0 1.7 0.00 0.02 0.00 86 1018.7
20260902083911 66 159 0.9 1.7 0.00 0.02 0.00 85 1018.7
20260902083833 66 159 0.0 1.7 0.00 0.02 0.00 86 1018.7
20260902083635 66 159 0.0 2.6 0.00 0.02 0.00 86 1018.7
20260902083556 66 159 0.0 2.6 0.00 0.02 0.00 86 1018.7
20260902083458 66 159 0.0 2.6 0.00 0.02 0.00 85 1018.7
20260902083358 66 159 0.0 2.6 0.00 0.02 0.00 85 1018.6
20260902083224 66 159 0.0 2.6 0.00 0.02 0.00 85 1018.6
20260902083144 66 159 0.9 2.6 0.00 0.02 0.00 85 1018.6
20260902083105 66 159 0.9 2.6 0.00 0.02 0.00 85 1018.6
20260902083007 66 159 1.7 2.6 0.00 0.02 0.00 85 1018.7
20260902082928 66 159 1.7 2.6 0.00 0.02 0.00 85 1018.7
20260902082747 66 158 0.0 2.6 0.00 0.02 0.00 86 1018.6
20260902082641 66 158 0.0 2.6 0.00 0.02 0.00 86 1018.6
20260902082510 66 158 0.0 2.6 0.00 0.02 0.00 85 1018.6
20260902082431 66 158 0.0 2.6 0.00 0.02 0.00 85 1018.6
20260902082208 66 158 0.9 2.6 0.00 0.02 0.00 85 1018.7
20260902082123 66 158 0.9 2.6 0.00 0.02 0.00 85 1018.7
20260902081932 66 182 0.9 2.6 0.00 0.02 0.00 86 1018.7
20260902081830 66 182 0.9 2.6 0.00 0.02 0.00 86 1018.7
20260902081751 66 182 1.7 2.6 0.00 0.02 0.00 86 1018.6
20260902081654 66 182 1.7 2.6 0.00 0.02 0.00 86 1018.7
20260902081616 66 182 1.7 2.6 0.00 0.02 0.00 86 1018.6
20260902081419 66 167 0.9 1.7 0.00 0.02 0.00 86 1018.6
20260902081330 66 167 0.0 2.6 0.00 0.02 0.00 86 1018.7
20260902081233 66 167 0.0 0.9 0.00 0.02 0.00 86 1018.7
20260902081155 66 167 0.0 0.9 0.00 0.02 0.00 86 1018.7
20260902081004 66 167 0.0 0.9 0.00 0.02 0.00 86 1018.8
20260902080921 66 167 0.0 2.6 0.00 0.02 0.00 86 1018.8
20260902080803 66 167 0.0 2.6 0.00 0.02 0.00 86 1018.8
20260902080703 66 167 0.0 2.6 0.00 0.02 0.00 86 1018.7
20260902080526 66 167 0.0 2.6 0.00 0.02 0.00 86 1018.7
20260902080448 66 167 0.0 2.6 0.00 0.02 0.00 86 1018.7
20260902080318 66 167 0.0 2.6 0.00 0.02 0.00 86 1018.7
20260902080234 66 167 0.0 2.6 0.00 0.02 0.00 86 1018.7
20260902080042 66 167 0.9 3.5 0.00 0.02 0.00 86 1018.7
20260902075957 66 167 0.9 2.6 0.00 0.02 0.00 86 1018.7
20260902075856 66 167 0.9 2.6 0.00 0.02 0.00 86 1018.7
20260902075817 66 169 0.9 3.5 0.00 0.02 0.00 87 1018.7
20260902075700 66 190 0.0 1.7 0.00 0.02 0.00 87 1018.7
20260902075626 66 190 0.0 1.7 0.00 0.02 0.00 87 1018.7
20260902075456 66 190 0.0 0.0 0.00 0.02 0.00 87 1018.7
20260902075418 66 190 0.0 0.0 0.00 0.02 0.00 87 1018.8
20260902075240 66 190 0.0 0.0 0.00 0.02 0.00 87 1018.8
20260902075140 66 190 0.0 0.0 0.00 0.02 0.00 87 1018.8
20260902075044 66 190 0.0 0.0 0.00 0.02 0.00 87 1018.9
20260902075006 66 190 0.0 0.0 0.00 0.02 0.00 87 1018.9
20260902074815 66 190 0.0 0.0 0.00 0.02 0.00 87 1018.9
20260902074731 66 190 0.0 0.0 0.00 0.02 0.00 87 1018.9
20260902074600 66 190 0.0 0.0 0.00 0.02 0.00 86 1018.9
20260902074523 66 190 0.0 0.0 0.00 0.02 0.00 86 1018.9
20260902074331 66 190 0.0 0.0 0.00 0.02 0.00 86 1018.8
20260902074251 66 190 0.0 0.0 0.00 0.02 0.00 86 1018.8
20260902074136 66 190 0.0 0.0 0.00 0.02 0.00 86 1018.8
20260902074057 66 190 0.0 0.0 0.00 0.02 0.00 86 1018.8
20260902073958 66 190 0.0 0.0 0.00 0.02 0.00 86 1018.8
20260902073842 67 190 0.0 0.0 0.00 0.02 0.00 86 1018.8
20260902073804 67 190 0.0 0.0 0.00 0.02 0.00 86 1018.8
20260902073624 67 190 0.0 0.0 0.00 0.02 0.00 86 1018.9
20260902073526 67 190 0.0 0.0 0.00 0.02 0.00 86 1018.8
20260902073427 67 190 0.0 0.0 0.00 0.02 0.00 86 1018.8
20260902073323 67 190 0.0 0.0 0.00 0.02 0.00 85 1018.9
20260902073224 67 190 0.0 0.0 0.00 0.02 0.00 85 1018.9
20260902073126 67 190 0.0 0.0 0.00 0.02 0.00 85 1018.8
20260902073046 67 190 0.0 0.9 0.00 0.02 0.00 85 1018.8
20260902073007 67 190 0.0 1.7 0.00 0.02 0.00 84 1018.8
20260902072910 67 190 0.0 1.7 0.00 0.02 0.00 84 1018.8
20260902072832 67 190 0.0 1.7 0.00 0.02 0.00 84 1018.8
20260902072635 67 190 0.0 1.7 0.00 0.02 0.00 84 1018.9
20260902072535 67 190 0.0 2.6 0.00 0.02 0.00 84 1018.8
20260902072459 67 190 0.0 2.6 0.00 0.02 0.00 84 1018.8
20260902072421 67 190 0.0 2.6 0.00 0.02 0.00 84 1018.8
20260902072336 67 190 0.0 2.6 0.00 0.02 0.00 83 1018.8
20260902072205 67 190 0.9 2.6 0.00 0.02 0.00 83 1018.8
20260902072128 67 190 0.9 2.6 0.00 0.02 0.00 83 1018.8
20260902071930 67 190 0.0 2.6 0.00 0.02 0.00 84 1018.8
20260902071850 67 190 0.9 2.6 0.00 0.02 0.00 83 1018.9
20260902071733 67 190 0.9 2.6 0.00 0.02 0.00 83 1018.8
20260902071654 67 166 0.0 1.7 0.00 0.02 0.00 84 1018.8
20260902071528 67 166 0.0 1.7 0.00 0.02 0.00 83 1018.9
20260902071506 67 165 0.0 1.7 0.00 0.02 0.00 83 1018.8
20260902071348 67 165 0.0 1.7 0.00 0.02 0.00 83 1018.9
20260902071311 67 165 0.0 1.7 0.00 0.02 0.00 83 1018.8
20260902071130 67 165 0.9 1.7 0.00 0.02 0.00 83 1018.8
20260902071031 67 165 0.0 2.6 0.00 0.02 0.00 83 1018.8
20260902070834 67 165 0.0 1.7 0.00 0.02 0.00 83 1018.8
20260902070755 67 166 0.9 2.6 0.00 0.02 0.00 83 1018.8
20260902070700 67 166 0.9 3.5 0.00 0.02 0.00 83 1018.8
20260902070621 67 165 0.9 3.5 0.00 0.02 0.00 83 1018.9
20260902070430 67 158 0.0 3.5 0.00 0.02 0.00 83 1018.8
20260902070324 67 158 0.9 3.5 0.00 0.02 0.00 83 1018.8
20260902070139 67 158 0.9 4.3 0.00 0.02 0.00 83 1018.7
20260902070101 67 158 1.7 4.3 0.00 0.02 0.00 83 1018.7
20260902065941 67 158 2.6 4.3 0.00 0.02 0.00 84 1018.7
20260902065839 66 161 1.7 4.3 0.00 0.02 0.00 84 1018.7
20260902065707 66 164 0.0 4.3 0.00 0.02 0.00 85 1018.7
20260902065624 66 184 0.9 4.3 0.00 0.02 0.00 85 1018.7
20260902065453 66 184 1.7 4.3 0.00 0.02 0.00 85 1018.7
20260902065415 66 188 1.7 4.3 0.00 0.02 0.00 86 1018.7
20260902065240 66 219 1.7 3.5 0.00 0.02 0.00 86 1018.7
20260902065138 66 209 1.7 3.5 0.00 0.02 0.00 86 1018.7
20260902065023 66 209 0.9 3.5 0.00 0.02 0.00 87 1018.7
20260902064948 66 215 0.9 2.6 0.00 0.02 0.00 87 1018.7
20260902064810 66 169 0.0 0.0 0.00 0.02 0.00 87 1018.6
20260902064731 66 169 0.0 0.0 0.00 0.02 0.00 87 1018.6
20260902064542 65 169 0.0 0.0 0.00 0.02 0.00 88 1018.6
20260902064434 65 169 0.0 0.0 0.00 0.02 0.00 87 1018.6
20260902064355 65 169 0.0 0.0 0.00 0.02 0.00 89 1018.6
20260902064257 65 241 0.0 0.0 0.00 0.02 0.00 88 1018.6
20260902064219 65 241 0.0 0.0 0.00 0.02 0.00 89 1018.7
20260902064050 65 241 0.0 0.0 0.00 0.02 0.00 89 1018.7
20260902063945 65 241 0.0 0.0 0.00 0.02 0.00 88 1018.7
20260902063813 65 241 0.0 0.0 0.00 0.02 0.00 88 1018.7
20260902063739 65 241 0.0 0.0 0.00 0.02 0.00 88 1018.7
20260902063541 65 241 0.0 0.0 0.00 0.02 0.00 89 1018.7
20260902063502 65 241 0.0 0.0 0.00 0.02 0.00 88 1018.8
20260902063404 65 241 0.0 0.0 0.00 0.02 0.00 88 1018.8
20260902063326 65 241 0.0 0.0 0.00 0.02 0.00 88 1018.8
20260902063138 66 241 0.0 0.0 0.00 0.02 0.00 89 1018.8
20260902063031 65 241 0.0 0.0 0.00 0.02 0.00 88 1018.9
20260902062951 66 241 0.0 0.0 0.00 0.02 0.00 88 1018.8
20260902062855 66 241 0.0 0.0 0.00 0.02 0.00 88 1018.8
20260902062817 66 241 0.0 0.0 0.00 0.02 0.00 88 1018.8
20260902062623 66 241 0.0 0.0 0.00 0.02 0.00 88 1018.8
20260902062524 66 241 0.0 0.0 0.00 0.02 0.00 88 1018.8
20260902062428 66 241 0.0 0.0 0.00 0.02 0.00 88 1018.8
20260902062349 66 241 0.0 0.0 0.00 0.02 0.00 88 1018.8
20260902062218 66 241 0.0 0.0 0.00 0.02 0.00 88 1018.8
20260902062132 66 241 0.0 0.0 0.00 0.02 0.00 88 1018.8
20260902061942 66 241 0.0 0.0 0.00 0.02 0.00 88 1018.8
20260902061856 66 241 0.0 0.0 0.00 0.02 0.00 88 1018.8
20260902061704 66 241 0.0 0.0 0.00 0.02 0.00 88 1018.8
20260902061626 66 241 0.0 0.0 0.00 0.02 0.00 88 1018.8
20260902061459 66 241 0.0 0.0 0.00 0.02 0.00 88 1018.7
20260902061413 66 241 0.0 0.0 0.00 0.02 0.00 88 1018.8
20260902061131 66 241 0.0 0.0 0.00 0.02 0.00 88 1018.7
20260902061025 66 241 0.0 0.0 0.00 0.02 0.00 87 1018.7
20260902060947 66 241 0.0 0.0 0.00 0.02 0.00 87 1018.7
20260902060849 66 241 0.0 0.0 0.00 0.02 0.00 87 1018.6
20260902060729 66 241 0.0 0.0 0.00 0.02 0.00 87 1018.6
20260902060632 66 241 0.0 0.0 0.00 0.02 0.00 88 1018.6
20260902060532 66 241 0.0 0.0 0.00 0.02 0.00 87 1018.6
20260902060403 66 241 0.0 0.0 0.00 0.02 0.00 87 1018.6
20260902060322 66 241 0.0 0.0 0.00 0.02 0.00 87 1018.6
20260902060132 66 241 0.0 0.0 0.00 0.02 0.00 88 1018.5
20260902060047 66 241 0.0 0.0 0.00 0.02 0.00 88 1018.6
20260902055856 66 241 0.0 0.0 0.00 0.02 0.00 88 1018.5
20260902055819 66 241 0.0 0.0 0.00 0.02 0.00 88 1018.5
20260902055649 66 241 0.0 0.0 0.00 0.02 0.00 88 1018.5
20260902055543 66 241 0.0 0.0 0.00 0.02 0.00 88 1018.5
20260902055437 66 241 0.0 0.0 0.00 0.02 0.00 87 1018.5
20260902055359 66 241 0.0 0.0 0.00 0.02 0.00 87 1018.6
20260902055226 66 241 0.0 0.0 0.00 0.02 0.00 87 1018.5
20260902055148 66 241 0.0 0.0 0.00 0.02 0.00 88 1018.5
20260902055018 66 241 0.0 0.0 0.00 0.02 0.00 88 1018.6
20260902054932 66 241 0.0 0.0 0.00 0.02 0.00 87 1018.6
20260902054741 66 241 0.0 0.0 0.00 0.02 0.00 86 1018.6
20260902054706 66 241 0.0 0.0 0.00 0.02 0.00 86 1018.6
20260902054514 66 241 0.0 0.0 0.00 0.02 0.00 86 1018.6
20260902054416 66 241 0.0 0.0 0.00 0.02 0.00 86 1018.6
20260902054238 66 241 0.0 0.0 0.00 0.02 0.00 86 1018.6
20260902054140 66 241 0.0 0.0 0.00 0.02 0.00 86 1018.6
20260902054028 66 241 0.0 0.0 0.00 0.02 0.00 86 1018.6
20260902053949 66 241 0.0 0.0 0.00 0.02 0.00 86 1018.6
20260902053820 66 241 0.0 0.0 0.00 0.02 0.00 86 1018.5
20260902053734 66 241 0.0 0.0 0.00 0.02 0.00 86 1018.5
20260902053544 66 241 0.0 0.0 0.00 0.02 0.00 85 1018.6
20260902053441 66 241 0.0 0.0 0.00 0.02 0.00 85 1018.6
20260902053323 66 241 0.0 0.0 0.00 0.02 0.00 86 1018.6
20260902053245 66 241 0.0 0.0 0.00 0.02 0.00 86 1018.6
20260902053115 66 241 0.0 0.0 0.00 0.02 0.00 84 1018.6
20260902053031 66 241 0.0 0.0 0.00 0.02 0.00 85 1018.6
20260902052904 67 241 0.0 0.0 0.00 0.02 0.00 85 1018.5
20260902052826 66 241 0.0 0.0 0.00 0.02 0.00 85 1018.5
20260902052629 66 241 0.0 0.0 0.00 0.02 0.00 85 1018.5
20260902052551 66 241 0.0 0.0 0.00 0.02 0.00 85 1018.5
20260902052433 66 241 0.0 0.0 0.00 0.02 0.00 85 1018.6
20260902052354 67 241 0.0 0.0 0.00 0.02 0.00 85 1018.5
20260902052315 66 241 0.0 0.0 0.00 0.02 0.00 85 1018.5
20260902052217 66 241 0.0 0.0 0.00 0.02 0.00 84 1018.5
20260902052139 66 241 0.0 0.0 0.00 0.02 0.00 84 1018.5
20260902051947 66 241 0.0 0.0 0.00 0.02 0.00 85 1018.5
20260902051827 66 241 0.0 0.0 0.00 0.02 0.00 84 1018.5
20260902051729 66 241 0.0 0.0 0.00 0.02 0.00 84 1018.5
20260902051650 66 250 0.0 0.0 0.00 0.02 0.00 84 1018.5
20260902051610 66 202 0.0 0.0 0.00 0.02 0.00 85 1018.5
20260902051512 66 202 0.0 0.0 0.00 0.02 0.00 86 1018.5
20260902051434 66 202 0.0 0.0 0.00 0.02 0.00 85 1018.5
20260902051303 66 202 0.0 0.0 0.00 0.02 0.00 85 1018.4
20260902051218 66 202 0.0 0.0 0.00 0.02 0.00 85 1018.5
20260902050955 66 202 0.0 0.0 0.00 0.02 0.00 84 1018.5
20260902050855 66 202 0.0 0.0 0.00 0.02 0.00 84 1018.5
20260902050758 66 202 0.0 0.0 0.00 0.02 0.00 84 1018.5
20260902050720 66 202 0.0 0.0 0.00 0.02 0.00 84 1018.5
20260902050533 67 202 0.0 0.0 0.00 0.02 0.00 84 1018.5
20260902050429 67 202 0.0 0.0 0.00 0.02 0.00 84 1018.5
20260902050349 67 202 0.0 0.0 0.00 0.02 0.00 84 1018.5
20260902050231 67 202 0.0 0.9 0.00 0.02 0.00 84 1018.5
20260902050153 67 202 0.0 0.9 0.00 0.02 0.00 84 1018.5
20260902045934 67 202 0.0 0.9 0.00 0.02 0.00 83 1018.5
20260902045854 67 202 0.0 0.9 0.00 0.02 0.00 84 1018.5
20260902045758 67 202 0.0 0.9 0.00 0.02 0.00 83 1018.5
20260902045720 67 202 0.0 0.9 0.00 0.02 0.00 83 1018.5
20260902045554 67 202 0.0 0.9 0.00 0.02 0.00 84 1018.5
20260902045427 67 182 0.0 0.9 0.00 0.02 0.00 83 1018.5
20260902045256 67 182 0.0 0.9 0.00 0.02 0.00 83 1018.5
20260902045217 67 156 0.0 0.9 0.00 0.02 0.00 84 1018.4
20260902045048 67 170 0.0 0.0 0.00 0.02 0.00 83 1018.3
20260902045002 67 170 0.0 0.0 0.00 0.02 0.00 83 1018.3
20260902044833 67 170 0.0 0.0 0.00 0.02 0.00 83 1018.3
20260902044734 67 170 0.0 0.0 0.00 0.02 0.00 83 1018.3
20260902044537 67 170 0.0 0.9 0.00 0.02 0.00 82 1018.3
20260902044456 67 170 0.0 0.9 0.00 0.02 0.00 82 1018.2
20260902044359 67 170 0.0 0.9 0.00 0.02 0.00 83 1018.3
20260902044321 67 170 0.0 0.9 0.00 0.02 0.00 83 1018.3
20260902044154 67 170 0.0 1.7 0.00 0.02 0.00 82 1018.3
20260902044108 67 170 0.0 1.7 0.00 0.02 0.00 82 1018.3
20260902043937 67 170 0.0 1.7 0.00 0.02 0.00 82 1018.3
20260902043838 67 170 0.0 1.7 0.00 0.02 0.00 82 1018.3
20260902043641 67 170 0.0 1.7 0.00 0.02 0.00 82 1018.3
20260902043601 67 170 0.0 1.7 0.00 0.02 0.00 81 1018.3
20260902043443 67 170 0.0 2.6 0.00 0.02 0.00 81 1018.3
20260902043406 67 214 0.0 2.6 0.00 0.02 0.00 81 1018.3
20260902043214 67 214 0.0 2.6 0.00 0.02 0.00 81 1018.3
20260902043129 67 214 0.9 3.5 0.00 0.02 0.00 81 1018.3
20260902042958 67 214 0.9 3.5 0.00 0.02 0.00 81 1018.4
20260902042925 68 214 0.9 3.5 0.00 0.02 0.00 81 1018.4
20260902042728 68 214 0.9 3.5 0.00 0.02 0.00 81 1018.4
20260902042648 68 214 0.9 3.5 0.00 0.02 0.00 80 1018.4
20260902042551 68 225 0.9 3.5 0.00 0.02 0.00 80 1018.3
20260902042432 68 222 0.9 3.5 0.00 0.02 0.00 80 1018.4
20260902042334 68 222 1.7 3.5 0.00 0.02 0.00 80 1018.3
20260902042255 68 222 1.7 3.5 0.00 0.02 0.00 80 1018.3
20260902042215 68 216 1.7 5.2 0.00 0.02 0.00 80 1018.3
20260902042119 68 216 1.7 5.2 0.00 0.02 0.00 81 1018.3
20260902042041 68 209 1.7 5.2 0.00 0.02 0.00 80 1018.3
20260902041833 68 201 0.9 5.2 0.00 0.02 0.00 80 1018.2
20260902041727 68 182 0.9 5.2 0.00 0.02 0.00 80 1018.2
20260902041622 68 166 1.7 5.2 0.00 0.02 0.00 80 1018.2
20260902041554 68 194 1.7 5.2 0.00 0.02 0.00 80 1018.2
20260902041516 68 207 2.6 5.2 0.00 0.02 0.00 79 1018.1
20260902041418 68 190 2.6 5.2 0.00 0.02 0.00 80 1018.2
20260902041319 68 192 2.6 5.2 0.00 0.02 0.00 80 1018.2
20260902041158 68 187 2.6 5.2 0.00 0.02 0.00 80 1018.2
20260902041114 68 195 2.6 5.2 0.00 0.02 0.00 79 1018.1
20260902040923 68 167 1.7 3.5 0.00 0.02 0.00 80 1018.1
20260902040841 68 167 0.9 2.6 0.00 0.02 0.00 80 1018.1
20260902040618 68 167 1.7 2.6 0.00 0.02 0.00 80 1018.1
20260902040541 68 167 1.7 3.5 0.00 0.02 0.00 79 1018.1
20260902040341 68 163 0.0 1.7 0.00 0.02 0.00 80 1018.1
20260902040242 68 163 0.9 1.7 0.00 0.02 0.00 80 1018.1
20260902040125 68 163 0.9 1.7 0.00 0.02 0.00 79 1018.2
20260902040047 68 163 0.0 1.7 0.00 0.02 0.00 80 1018.2
20260902040008 68 167 0.0 4.3 0.00 0.02 0.00 79 1018.2
20260902035913 68 167 0.0 4.3 0.00 0.02 0.02 79 1018.2
20260902035834 68 167 0.0 4.3 0.00 0.02 0.02 79 1018.2
20260902035704 68 167 0.0 4.3 0.00 0.02 0.02 79 1018.2
20260902035623 68 167 0.9 4.3 0.00 0.02 0.02 79 1018.2
20260902035454 68 167 0.9 4.3 0.00 0.02 0.02 79 1018.1
20260902035415 68 164 0.9 4.3 0.00 0.02 0.02 79 1018.1
20260902035239 68 164 1.7 4.3 0.00 0.02 0.02 79 1018.1
20260902035200 68 148 1.7 4.3 0.00 0.02 0.02 79 1018.1
20260902034908 68 160 0.0 2.6 0.00 0.02 0.02 80 1018.1
20260902034726 68 160 0.0 4.3 0.00 0.02 0.02 78 1018.1
20260902034631 68 160 0.9 4.3 0.00 0.02 0.02 78 1018.1
20260902034553 68 160 0.9 4.3 0.00 0.02 0.02 78 1018.1
20260902034422 68 162 0.9 4.3 0.00 0.02 0.02 78 1018.0
20260902034337 68 180 1.7 4.3 0.00 0.02 0.02 78 1018.0
20260902034206 68 175 1.7 4.3 0.00 0.02 0.02 78 1018.1
20260902034107 68 171 2.6 4.3 0.00 0.02 0.02 78 1018.0
20260902034012 68 203 2.6 4.3 0.00 0.02 0.02 78 1018.0
20260902033933 68 193 2.6 4.3 0.00 0.02 0.02 78 1018.0
20260902033804 68 220 2.6 4.3 0.00 0.02 0.02 78 1018.0
20260902033704 68 217 1.7 3.5 0.00 0.02 0.02 78 1018.0
20260902033528 68 190 0.9 3.5 0.00 0.02 0.02 78 1018.0
20260902033455 68 186 0.9 3.5 0.00 0.02 0.02 78 1018.0
20260902033238 68 183 0.9 3.5 0.00 0.02 0.02 78 1017.8
20260902033159 68 183 0.9 3.5 0.00 0.02 0.02 78 1017.9
20260902033023 68 157 0.0 1.7 0.00 0.02 0.02 78 1017.8
20260902032938 68 157 0.0 1.7 0.00 0.02 0.02 78 1017.8
20260902032809 68 157 0.0 1.7 0.00 0.02 0.02 78 1017.9
20260902032731 68 157 0.0 1.7 0.00 0.02 0.02 79 1017.9
20260902032554 68 157 0.0 3.5 0.00 0.02 0.02 78 1017.9
20260902032517 68 157 0.0 3.5 0.00 0.02 0.02 78 1017.9
20260902032330 68 157 0.9 3.5 0.00 0.02 0.02 78 1017.9
20260902032245 68 157 0.9 3.5 0.00 0.02 0.02 78 1017.9
20260902032115 68 156 0.9 3.5 0.00 0.02 0.02 78 1017.9
20260902032037 68 156 0.9 3.5 0.00 0.02 0.02 78 1017.9
20260902031843 68 174 1.7 3.5 0.00 0.02 0.02 78 1017.9
20260902031804 68 177 1.7 3.5 0.00 0.02 0.02 78 1017.9
20260902031707 67 211 1.7 3.5 0.00 0.02 0.02 78 1017.9
20260902031630 67 213 1.7 3.5 0.00 0.02 0.02 79 1017.9
20260902031435 68 202 0.9 2.6 0.00 0.02 0.02 79 1017.9
20260902031322 68 194 0.9 2.6 0.00 0.02 0.02 80 1017.9
20260902031245 68 241 1.7 2.6 0.00 0.02 0.02 80 1017.9
20260902031146 68 192 0.9 2.6 0.00 0.02 0.02 80 1017.8
20260902031014 68 192 0.0 0.9 0.00 0.02 0.02 81 1017.7
20260902030929 68 192 0.0 0.9 0.00 0.02 0.02 81 1017.7
20260902030738 68 192 0.0 0.9 0.00 0.02 0.02 80 1017.7
20260902030633 68 192 0.0 0.9 0.00 0.02 0.02 80 1017.6
20260902030529 68 192 0.0 1.7 0.00 0.02 0.02 80 1017.6
20260902030450 68 192 0.0 1.7 0.00 0.02 0.02 79 1017.6
20260902030259 68 192 0.0 2.6 0.00 0.02 0.02 78 1017.5
20260902030216 68 192 0.0 2.6 0.00 0.02 0.02 80 1017.5
20260902025955 68 192 0.0 2.6 0.00 0.02 0.02 80 1017.5
20260902025918 68 192 0.0 2.6 0.00 0.02 0.02 79 1017.5
20260902025741 68 192 0.9 2.6 0.00 0.02 0.02 78 1017.4
20260902025641 68 192 0.9 2.6 0.00 0.02 0.02 78 1017.4
20260902025525 68 192 0.9 4.3 0.00 0.02 0.02 78 1017.4
20260902025448 68 192 0.0 4.3 0.00 0.02 0.02 78 1017.4
20260902025318 68 192 0.0 4.3 0.00 0.02 0.02 77 1017.3
20260902025231 68 192 0.0 4.3 0.00 0.02 0.02 77 1017.3
20260902025042 68 192 0.0 4.3 0.00 0.02 0.02 77 1017.3
20260902025000 68 192 0.9 4.3 0.00 0.02 0.02 77 1017.3
20260902024832 68 198 0.9 4.3 0.00 0.02 0.02 77 1017.3
20260902024732 68 207 0.9 4.3 0.00 0.02 0.02 77 1017.3
20260902024535 68 186 0.9 3.5 0.00 0.02 0.02 77 1017.2
20260902024458 68 171 0.9 3.5 0.00 0.02 0.02 77 1017.2
20260902024342 68 171 1.7 3.5 0.00 0.02 0.02 78 1017.1
20260902024305 68 206 1.7 3.5 0.00 0.02 0.02 78 1017.1
20260902024107 68 192 0.9 3.5 0.00 0.02 0.02 78 1017.2
20260902024029 68 192 1.7 3.5 0.00 0.02 0.02 78 1017.2
20260902023840 68 207 2.6 3.5 0.00 0.02 0.02 78 1017.2
20260902023757 68 176 2.6 3.5 0.00 0.02 0.02 78 1017.2
20260902023605 68 182 0.9 3.5 0.00 0.02 0.02 78 1017.1
20260902023527 69 194 0.0 2.6 0.00 0.02 0.02 78 1017.1
20260902023331 69 175 0.0 2.6 0.00 0.02 0.02 79 1017.2
20260902023252 69 175 0.0 2.6 0.00 0.02 0.02 78 1017.1
20260902023156 69 175 0.0 3.5 0.00 0.02 0.02 78 1017.2
20260902023118 69 175 0.9 3.5 0.00 0.02 0.02 79 1017.2
20260902022926 69 175 0.0 3.5 0.00 0.02 0.02 78 1017.2
20260902022821 69 184 0.0 3.5 0.00 0.02 0.02 78 1017.3
20260902022630 69 184 0.0 4.3 0.00 0.02 0.02 78 1017.2
20260902022545 69 184 0.9 4.3 0.00 0.02 0.02 78 1017.3
20260902022419 69 221 1.7 4.3 0.00 0.02 0.02 78 1017.3
20260902022340 69 200 1.7 4.3 0.00 0.02 0.02 78 1017.3
20260902022209 69 164 2.6 4.3 0.00 0.02 0.02 77 1017.4
20260902022124 69 173 1.7 4.3 0.00 0.02 0.02 77 1017.4
20260902021935 69 169 2.6 4.3 0.00 0.02 0.02 78 1017.4
20260902021850 69 171 2.6 5.2 0.00 0.02 0.02 78 1017.4
20260902021659 69 186 1.7 2.6 0.00 0.02 0.02 79 1017.4
20260902021559 69 180 1.7 3.5 0.00 0.02 0.02 78 1017.4
20260902021424 69 188 0.9 3.5 0.00 0.02 0.02 79 1017.4
20260902021340 69 188 1.7 3.5 0.00 0.02 0.02 79 1017.4
20260902021214 69 176 0.9 4.3 0.00 0.02 0.02 79 1017.4
20260902021135 69 176 0.9 4.3 0.00 0.02 0.02 79 1017.4
20260902021005 69 176 0.9 4.3 0.00 0.02 0.02 79 1017.5
20260902020920 69 176 1.7 4.3 0.00 0.02 0.02 79 1017.5
20260902020740 69 174 1.7 4.3 0.00 0.02 0.02 79 1017.5
20260902020655 69 176 1.7 4.3 0.00 0.02 0.02 79 1017.5
20260902020526 69 175 2.6 4.3 0.00 0.02 0.02 79 1017.5
20260902020425 69 173 2.6 3.5 0.00 0.02 0.02 79 1017.5
20260902020225 69 183 1.7 4.3 0.00 0.02 0.02 79 1017.5
20260902020147 69 175 2.6 4.3 0.00 0.02 0.02 79 1017.5
20260902020034 69 183 1.7 4.3 0.00 0.02 0.02 79 1017.6
20260902015955 69 169 0.9 4.3 0.00 0.02 0.02 79 1017.5
20260902015917 69 211 0.9 4.3 0.00 0.02 0.02 79 1017.5
20260902015818 69 165 1.7 4.3 0.00 0.02 0.02 80 1017.6
20260902015739 69 165 1.7 4.3 0.00 0.02 0.02 80 1017.6
20260902015608 69 214 1.7 4.3 0.00 0.02 0.02 80 1017.6
20260902015441 69 208 0.9 3.5 0.00 0.02 0.02 80 1017.6
20260902015325 69 155 0.9 2.6 0.00 0.02 0.02 80 1017.6
20260902015246 69 176 0.9 2.6 0.00 0.02 0.02 80 1017.6
20260902015207 69 194 0.9 2.6 0.00 0.02 0.02 80 1017.6
20260902015111 69 194 0.0 2.6 0.00 0.02 0.02 80 1017.5
20260902015037 69 194 0.9 2.6 0.00 0.02 0.02 80 1017.5
20260902014908 69 194 0.9 2.6 0.00 0.02 0.02 79 1017.5
20260902014823 69 194 1.7 2.6 0.00 0.02 0.02 79 1017.5
20260902014654 69 192 1.7 3.5 0.00 0.02 0.02 79 1017.5
20260902014615 69 219 0.9 3.5 0.00 0.02 0.02 80 1017.5
20260902014446 69 215 0.0 3.5 0.00 0.02 0.02 81 1017.5
20260902014401 69 254 0.9 3.5 0.00 0.02 0.02 80 1017.5
20260902014220 70 234 0.9 3.5 0.00 0.02 0.02 79 1017.5
20260902014121 70 234 0.9 3.5 0.00 0.02 0.02 79 1017.4
20260902013925 70 157 1.7 3.5 0.00 0.02 0.02 76 1017.5
20260902013847 69 185 2.6 3.5 0.00 0.02 0.02 76 1017.5
20260902013751 69 148 2.6 5.2 0.00 0.02 0.02 77 1017.4
20260902013716 69 184 2.6 5.2 0.00 0.02 0.02 78 1017.4
20260902013546 70 159 1.7 5.2 0.00 0.02 0.02 78 1017.4
20260902013441 70 188 1.7 5.2 0.00 0.02 0.02 77 1017.4
20260902013325 70 159 0.9 5.2 0.00 0.02 0.02 79 1017.4
20260902013225 70 135 0.9 5.2 0.00 0.02 0.02 78 1017.4
20260902013147 70 135 1.7 5.2 0.00 0.02 0.02 77 1017.4
20260902013050 70 135 1.7 5.2 0.00 0.02 0.02 77 1017.4
20260902013012 70 176 1.7 6.1 0.00 0.02 0.02 78 1017.4
20260902012822 70 139 0.9 7.0 0.00 0.02 0.02 78 1017.4
20260902012716 70 182 0.9 7.0 0.00 0.02 0.02 78 1017.4
20260902012550 70 196 1.7 7.0 0.00 0.02 0.02 78 1017.4
20260902012511 70 188 1.7 7.0 0.00 0.02 0.02 77 1017.4
20260902012414 70 215 1.7 8.7 0.00 0.02 0.02 77 1017.4
20260902012316 70 186 0.9 8.7 0.00 0.02 0.02 77 1017.4
20260902012238 70 179 2.6 8.7 0.00 0.02 0.02 77 1017.4
20260902012109 70 162 4.3 8.7 0.00 0.02 0.02 77 1017.3
20260902012025 70 166 3.5 8.7 0.00 0.02 0.02 77 1017.3
20260902011835 70 118 3.5 8.7 0.00 0.02 0.02 77 1017.3
20260902011728 70 165 4.3 8.7 0.00 0.02 0.02 77 1017.3
20260902011659 70 155 4.3 8.7 0.00 0.02 0.02 77 1017.3
20260902011528 70 142 2.6 7.8 0.00 0.02 0.02 78 1017.3
20260902011443 70 172 2.6 9.6 0.00 0.02 0.02 78 1017.4
20260902011254 70 122 3.5 9.6 0.00 0.02 0.02 78 1017.4
20260902011215 70 205 3.5 9.6 0.00 0.02 0.02 78 1017.4
20260902011046 70 132 5.2 9.6 0.00 0.02 0.02 78 1017.3
20260902010938 69 134 5.2 9.6 0.00 0.02 0.02 79 1017.4
20260902010900 69 166 4.3 9.6 0.00 0.02 0.02 79 1017.3
20260902010752 69 159 4.3 9.6 0.00 0.02 0.02 80 1017.3
20260902010541 68 155 1.7 7.0 0.00 0.02 0.02 81 1017.3
20260902010440 68 173 2.6 7.0 0.00 0.02 0.02 81 1017.3
20260902010325 68 173 4.3 7.0 0.00 0.02 0.02 81 1017.3
20260902010247 68 182 4.3 7.0 0.00 0.02 0.02 81 1017.3
20260902010207 68 148 3.5 7.0 0.00 0.02 0.02 83 1017.3
20260902010111 68 205 2.6 7.0 0.00 0.02 0.02 83 1017.3
20260902010032 68 169 2.6 7.0 0.00 0.02 0.02 84 1017.3
20260902005902 67 154 2.6 7.0 0.00 0.02 0.02 84 1017.3
20260902005817 67 166 1.7 3.5 0.00 0.02 0.02 84 1017.3
20260902005647 67 199 0.0 3.5 0.00 0.02 0.02 85 1017.3
20260902005548 67 182 0.0 3.5 0.00 0.02 0.02 85 1017.3
20260902005511 67 182 0.9 3.5 0.00 0.02 0.02 85 1017.3
20260902005414 67 182 1.7 3.5 0.00 0.02 0.02 85 1017.3
20260902005340 67 188 0.9 3.5 0.00 0.02 0.02 86 1017.3
20260902005124 67 167 0.0 1.7 0.00 0.02 0.02 87 1017.3
20260902005025 67 153 0.0 1.7 0.00 0.02 0.02 86 1017.2
20260902004929 67 153 0.0 1.7 0.00 0.02 0.02 86 1017.2
20260902004852 67 153 0.0 1.7 0.00 0.02 0.02 87 1017.2
20260902004722 67 153 0.0 1.7 0.00 0.02 0.02 86 1017.2
20260902004637 67 153 0.0 1.7 0.00 0.02 0.02 86 1017.2
20260902004425 67 203 0.0 0.0 0.00 0.02 0.02 87 1017.2
20260902004351 67 203 0.0 0.0 0.00 0.02 0.02 87 1017.1
20260902004221 67 203 0.0 0.0 0.00 0.02 0.02 87 1017.2
20260902004146 67 203 0.0 0.0 0.00 0.02 0.02 87 1017.2
20260902004017 67 203 0.0 0.0 0.00 0.02 0.02 87 1017.2
20260902003933 67 203 0.0 0.0 0.00 0.02 0.02 87 1017.2
20260902003804 67 203 0.0 0.0 0.00 0.02 0.02 87 1017.2
20260902003724 67 203 0.0 0.0 0.00 0.02 0.02 87 1017.2
20260902003526 67 203 0.0 0.0 0.00 0.02 0.02 87 1017.2
20260902003448 67 203 0.0 0.0 0.00 0.02 0.02 87 1017.2
20260902003333 67 203 0.0 0.0 0.00 0.02 0.02 87 1017.2
20260902003254 67 203 0.0 0.0 0.00 0.02 0.02 87 1017.2
20260902003218 67 203 0.0 0.0 0.00 0.02 0.02 88 1017.2
20260902003119 67 203 0.0 0.0 0.00 0.02 0.02 87 1017.2
20260902003046 67 203 0.0 0.0 0.00 0.02 0.02 87 1017.2
20260902002914 67 203 0.0 0.0 0.00 0.02 0.02 87 1017.1
20260902002829 67 203 0.0 0.0 0.00 0.02 0.02 87 1017.1
20260902002640 67 203 0.0 0.0 0.00 0.02 0.02 87 1017.1
20260902002555 67 203 0.0 0.0 0.00 0.02 0.02 87 1017.0
20260902002404 67 203 0.0 0.0 0.00 0.02 0.02 87 1017.0
20260902002326 67 203 0.0 0.0 0.00 0.02 0.02 87 1017.0
20260902002129 67 203 0.0 0.0 0.00 0.02 0.02 86 1017.0
20260902002051 67 203 0.0 0.0 0.00 0.02 0.02 86 1017.0
20260902001936 67 203 0.0 0.0 0.00 0.02 0.02 86 1017.0
20260902001902 67 203 0.0 0.0 0.00 0.02 0.02 86 1017.0
20260902001731 68 203 0.0 1.7 0.00 0.02 0.02 87 1017.1
20260902001626 68 203 0.0 1.7 0.00 0.02 0.02 87 1017.1
20260902001454 68 203 0.0 1.7 0.00 0.02 0.02 86 1017.1
20260902001328 68 203 0.0 1.7 0.00 0.02 0.02 86 1017.0
20260902001230 68 203 0.0 1.7 0.00 0.02 0.02 86 1017.1
20260902001155 68 203 0.0 1.7 0.00 0.02 0.02 87 1017.1
20260902001117 68 203 0.0 1.7 0.00 0.02 0.02 86 1017.1
20260902000948 68 203 0.0 1.7 0.00 0.02 0.02 86 1017.1
20260902000915 68 203 0.0 1.7 0.00 0.02 0.02 86 1017.1
20260902000746 68 203 0.0 0.0 0.00 0.02 0.02 87 1017.2
20260902000711 68 203 0.0 0.0 0.00 0.02 0.02 87 1017.2
20260902000520 68 203 0.0 0.0 0.00 0.02 0.02 87 1017.3
20260902000415 68 203 0.0 0.0 0.00 0.02 0.02 87 1017.2
20260902000226 68 203 0.0 0.0 0.00 0.02 0.02 86 1017.2
20260902000138 68 203 0.0 0.0 0.00 0.02 0.02 86 1017.2
20260902000007 68 203 0.0 0.0 0.00 0.02 0.02 86 1017.2
20260901235930 68 203 0.0 0.0 0.00 0.02 0.02 86 1017.2
20260901235732 68 203 0.0 0.0 0.00 0.02 0.02 86 1017.2
20260901235654 68 203 0.0 0.0 0.00 0.02 0.02 86 1017.2
20260901235538 68 203 0.0 0.0 0.00 0.02 0.02 86 1017.2
20260901235504 68 203 0.0 0.0 0.00 0.02 0.02 86 1017.2
20260901235314 68 203 0.0 0.0 0.00 0.02 0.02 86 1017.1
20260901235228 68 203 0.0 0.0 0.00 0.02 0.02 86 1017.1
20260901235039 68 203 0.0 0.0 0.00 0.02 0.02 85 1017.2
20260901234934 68 203 0.0 0.0 0.00 0.02 0.02 85 1017.2
20260901234856 69 203 0.0 0.0 0.00 0.02 0.02 86 1017.2
20260901234801 69 203 0.0 0.0 0.00 0.02 0.02 86 1017.2
20260901234640 69 203 0.0 0.9 0.00 0.02 0.02 85 1017.2
20260901234523 69 203 0.0 1.7 0.00 0.02 0.02 85 1017.2
20260901234449 69 203 0.0 1.7 0.00 0.02 0.02 85 1017.1
20260901234223 69 203 0.0 1.7 0.00 0.02 0.02 85 1017.2
20260901234054 69 203 0.0 1.7 0.00 0.02 0.02 85 1017.2
20260901233948 69 203 0.0 1.7 0.00 0.02 0.02 85 1017.2
20260901233735 69 203 0.9 1.7 0.00 0.02 0.02 84 1017.2
20260901233649 69 203 0.0 1.7 0.00 0.02 0.02 84 1017.1
20260901233438 69 203 0.0 0.0 0.00 0.02 0.02 85 1017.1
20260901233333 69 203 0.0 0.0 0.00 0.02 0.02 85 1017.1
20260901233254 69 203 0.0 0.0 0.00 0.02 0.02 85 1017.1
20260901233218 69 203 0.0 0.0 0.00 0.02 0.02 85 1017.1
20260901233134 69 203 0.0 0.0 0.00 0.02 0.02 85 1017.1
20260901233002 69 203 0.0 0.0 0.00 0.02 0.02 84 1017.1
20260901232902 69 203 0.0 0.0 0.00 0.02 0.02 84 1017.1
20260901232756 69 203 0.0 0.0 0.00 0.02 0.02 83 1017.2
20260901232716 69 203 0.0 0.0 0.00 0.02 0.02 83 1017.2
20260901232638 69 203 0.0 0.0 0.00 0.02 0.02 83 1017.2
20260901232502 70 203 0.0 0.0 0.00 0.02 0.02 82 1017.2
20260901232423 70 203 0.0 0.0 0.00 0.02 0.02 82 1017.2
20260901232237 70 203 0.0 0.0 0.00 0.02 0.02 83 1017.2
20260901232123 70 203 0.0 0.0 0.00 0.02 0.02 83 1017.2
20260901232026 70 203 0.0 0.0 0.00 0.02 0.02 82 1017.2
20260901231948 70 203 0.0 0.0 0.00 0.02 0.02 81 1017.2
20260901231909 70 203 0.0 0.0 0.00 0.02 0.02 81 1017.2
20260901231812 70 203 0.0 0.0 0.00 0.02 0.02 82 1017.2
20260901231712 70 203 0.0 0.0 0.00 0.02 0.02 82 1017.2
20260901231633 70 203 0.0 0.0 0.00 0.02 0.02 81 1017.1
20260901231515 70 203 0.0 1.7 0.00 0.02 0.02 82 1017.1
20260901231437 70 203 0.0 1.7 0.00 0.02 0.02 81 1017.1
20260901231309 70 203 0.0 1.7 0.00 0.02 0.02 81 1017.1
20260901231225 70 203 0.0 1.7 0.00 0.02 0.02 81 1017.1
20260901231105 70 203 0.0 1.7 0.00 0.02 0.02 82 1017.1
20260901231026 70 203 0.0 1.7 0.00 0.02 0.02 82 1017.1
20260901230900 70 203 0.0 1.7 0.00 0.02 0.02 81 1017.0
20260901230815 70 203 0.0 1.7 0.00 0.02 0.02 80 1017.1
20260901230646 71 203 0.0 0.0 0.00 0.02 0.02 81 1017.0
20260901230547 71 203 0.0 0.0 0.00 0.02 0.02 81 1017.0
20260901230410 71 203 0.0 0.9 0.00 0.02 0.02 81 1017.0
20260901230331 71 203 0.0 0.9 0.00 0.02 0.02 81 1017.0
20260901230211 71 203 0.0 0.9 0.00 0.02 0.02 81 1016.9
20260901230126 71 203 0.0 0.9 0.00 0.02 0.02 80 1016.9
20260901225956 71 203 0.0 0.9 0.00 0.02 0.02 80 1016.9
20260901225917 71 203 0.0 0.9 0.00 0.02 0.02 79 1016.9
20260901225749 71 203 0.0 1.7 0.00 0.02 0.02 79 1016.9
20260901225626 71 203 0.0 1.7 0.00 0.02 0.02 78 1016.9
20260901225531 71 203 0.0 1.7 0.00 0.02 0.02 79 1016.9
20260901225452 71 203 0.0 1.7 0.00 0.02 0.02 77 1016.8
20260901225413 71 203 0.0 1.7 0.00 0.02 0.02 77 1016.8
20260901225318 71 203 0.0 1.7 0.00 0.02 0.02 77 1016.8
20260901225218 71 203 0.0 1.7 0.00 0.02 0.02 78 1016.7
20260901225047 71 203 0.9 6.1 0.00 0.02 0.02 77 1016.7
20260901224942 71 203 0.9 6.1 0.00 0.02 0.02 77 1016.7
20260901224903 71 200 0.0 6.1 0.00 0.02 0.02 77 1016.8
20260901224817 71 200 0.0 6.1 0.00 0.02 0.02 78 1016.8
20260901224739 71 200 0.0 6.1 0.00 0.02 0.02 78 1016.8
20260901224548 71 200 0.9 6.1 0.00 0.02 0.02 77 1016.7
20260901224454 71 221 1.7 6.1 0.00 0.02 0.02 77 1016.7
20260901224235 71 206 0.9 6.1 0.00 0.02 0.02 78 1016.7
20260901224157 71 177 0.9 3.5 0.00 0.02 0.02 78 1016.7
20260901224041 72 177 0.9 3.5 0.00 0.02 0.02 76 1016.7
20260901223924 72 177 0.9 3.5 0.00 0.02 0.02 77 1016.7
20260901223845 72 171 0.0 3.5 0.00 0.02 0.02 77 1016.7
20260901223746 72 177 0.9 3.5 0.00 0.02 0.02 77 1016.7
20260901223648 72 177 1.7 3.5 0.00 0.02 0.02 76 1016.7
20260901223528 72 188 2.6 3.5 0.00 0.02 0.02 77 1016.6
20260901223436 72 140 2.6 3.5 0.00 0.02 0.02 76 1016.6
20260901223357 72 188 1.7 3.5 0.00 0.02 0.02 77 1016.6
20260901223227 72 190 0.9 2.6 0.00 0.02 0.02 77 1016.6
20260901223127 72 190 0.9 2.6 0.00 0.02 0.02 77 1016.6
20260901223008 72 190 0.9 2.6 0.00 0.02 0.02 77 1016.6
20260901222930 72 193 0.0 2.6 0.00 0.02 0.02 77 1016.6
20260901222746 72 161 0.9 2.6 0.00 0.02 0.02 78 1016.6
20260901222527 72 145 0.9 4.3 0.00 0.02 0.02 77 1016.7
20260901222449 72 145 0.9 4.3 0.00 0.02 0.02 77 1016.7
20260901222332 72 173 0.0 4.3 0.00 0.02 0.02 77 1016.6
20260901222253 72 173 0.0 4.3 0.00 0.02 0.02 77 1016.6
20260901222140 72 173 0.0 4.3 0.00 0.02 0.02 79 1016.6
20260901222102 72 173 0.9 4.3 0.00 0.02 0.02 78 1016.6
20260901221909 72 173 2.6 4.3 0.00 0.02 0.02 77 1016.6
20260901221826 72 183 1.7 4.3 0.00 0.02 0.02 77 1016.6
20260901221635 72 144 0.0 0.9 0.00 0.02 0.02 79 1016.6
20260901221550 72 144 0.0 0.9 0.00 0.02 0.02 79 1016.6
20260901221419 72 144 0.0 0.9 0.00 0.02 0.02 79 1016.6
20260901221341 72 144 0.0 0.9 0.00 0.02 0.02 79 1016.6
20260901221210 72 144 0.0 0.9 0.00 0.02 0.02 79 1016.6
20260901221126 72 144 0.0 1.7 0.00 0.02 0.02 79 1016.6
20260901220957 72 144 0.0 1.7 0.00 0.02 0.02 80 1016.5
20260901220919 72 144 0.0 1.7 0.00 0.02 0.02 80 1016.5
20260901220719 72 144 0.0 1.7 0.00 0.02 0.02 81 1016.5
20260901220530 72 144 0.0 2.6 0.00 0.02 0.02 81 1016.5
20260901220424 72 144 0.9 2.6 0.00 0.02 0.02 80 1016.5
20260901220346 72 144 0.9 2.6 0.00 0.02 0.02 79 1016.5
20260901220248 72 144 0.9 2.6 0.00 0.02 0.02 79 1016.5
20260901220149 72 144 0.9 2.6 0.00 0.02 0.02 79 1016.5
20260901220018 72 173 0.9 2.6 0.00 0.02 0.02 79 1016.5
20260901215932 72 173 0.9 2.6 0.00 0.02 0.02 79 1016.5
20260901215742 72 185 0.0 2.6 0.00 0.02 0.02 77 1016.5
20260901215701 72 180 0.0 2.6 0.00 0.02 0.02 78 1016.5
20260901215531 72 180 0.0 2.6 0.00 0.02 0.02 77 1016.6
20260901215430 72 180 0.0 2.6 0.00 0.02 0.02 77 1016.4
20260901215257 72 180 0.9 2.6 0.00 0.02 0.02 77 1016.4
20260901215219 72 180 0.0 2.6 0.00 0.02 0.02 77 1016.4
20260901215049 72 180 0.9 2.6 0.00 0.02 0.02 77 1016.5
20260901214950 73 180 0.9 2.6 0.00 0.02 0.02 77 1016.5
20260901214731 73 151 0.0 1.7 0.00 0.02 0.02 78 1016.4
20260901214652 73 151 0.0 1.7 0.00 0.02 0.02 78 1016.4
20260901214536 73 151 0.0 1.7 0.00 0.02 0.02 77 1016.5
20260901214434 73 151 0.0 1.7 0.00 0.02 0.02 77 1016.4
20260901214335 73 151 0.0 1.7 0.00 0.02 0.02 77 1016.5
20260901214251 73 151 0.0 1.7 0.00 0.02 0.02 77 1016.5
20260901214129 73 151 0.0 1.7 0.00 0.02 0.02 77 1016.4
20260901214031 73 151 0.0 1.7 0.00 0.02 0.02 77 1016.4
20260901213833 73 151 0.0 0.9 0.00 0.02 0.02 76 1016.5
20260901213755 73 151 0.0 1.7 0.00 0.02 0.02 76 1016.5
20260901213640 73 151 0.0 2.6 0.00 0.02 0.02 76 1016.4
20260901213603 73 151 0.0 3.5 0.00 0.02 0.02 76 1016.4
20260901213405 73 151 0.0 3.5 0.00 0.02 0.02 76 1016.4
20260901213330 73 151 0.0 3.5 0.00 0.02 0.02 76 1016.4
20260901213159 73 151 0.0 3.5 0.00 0.02 0.02 76 1016.5
20260901213121 73 151 0.0 3.5 0.00 0.02 0.02 76 1016.5
20260901212925 73 151 1.7 3.5 0.00 0.02 0.02 76 1016.6
20260901212846 73 151 1.7 3.5 0.00 0.02 0.02 76 1016.5
20260901212748 73 209 1.7 3.5 0.00 0.02 0.02 76 1016.5
20260901212647 73 169 1.7 2.6 0.00 0.02 0.02 76 1016.5
20260901212608 73 171 1.7 2.6 0.00 0.02 0.02 75 1016.5
20260901212513 73 193 1.7 2.6 0.00 0.02 0.02 75 1016.6
20260901212434 73 173 1.7 3.5 0.00 0.02 0.02 75 1016.6
20260901212252 73 207 1.7 3.5 0.00 0.02 0.02 76 1016.5
20260901212147 73 173 1.7 3.5 0.00 0.02 0.02 74 1016.5
20260901212020 73 206 0.9 4.3 0.00 0.02 0.02 75 1016.5
20260901211942 73 181 0.9 4.3 0.00 0.02 0.02 74 1016.5
20260901211811 73 190 1.7 6.1 0.00 0.02 0.02 74 1016.6
20260901211727 73 159 1.7 6.1 0.00 0.02 0.02 73 1016.6
20260901211606 73 180 0.9 6.1 0.00 0.02 0.02 72 1016.6
20260901211507 73 155 1.7 6.1 0.00 0.02 0.02 72 1016.6
20260901211330 73 155 2.6 7.0 0.00 0.02 0.02 71 1016.5
20260901211251 73 172 2.6 7.0 0.00 0.02 0.02 71 1016.5
20260901211133 73 171 2.6 7.0 0.00 0.02 0.02 71 1016.5
20260901211055 73 154 3.5 7.0 0.00 0.02 0.02 71 1016.5
20260901211015 73 150 2.6 7.0 0.00 0.02 0.02 72 1016.5
20260901210918 73 144 2.6 7.0 0.00 0.02 0.02 71 1016.5
20260901210845 73 170 2.6 7.0 0.00 0.02 0.02 71 1016.5
20260901210713 73 157 2.6 7.0 0.00 0.02 0.02 71 1016.6
20260901210615 73 146 2.6 7.0 0.00 0.02 0.02 71 1016.6
20260901210438 74 150 2.6 3.5 0.00 0.02 0.02 74 1016.5
20260901210340 74 145 1.7 3.5 0.00 0.02 0.02 73 1016.5
20260901210224 74 130 1.7 3.5 0.00 0.02 0.02 72 1016.5
20260901210147 74 142 0.9 4.3 0.00 0.02 0.02 73 1016.4
20260901205928 74 157 1.7 4.3 0.00 0.02 0.02 77 1016.5
20260901205850 74 157 0.9 4.3 0.00 0.02 0.02 75 1016.5
20260901205754 74 136 0.0 4.3 0.00 0.02 0.02 78 1016.4
20260901205719 74 175 0.0 4.3 0.00 0.02 0.02 77 1016.5
20260901205523 74 175 0.0 4.3 0.00 0.02 0.02 77 1016.4
20260901205425 74 175 0.0 4.3 0.00 0.02 0.02 77 1016.4
20260901205328 74 175 0.9 4.3 0.00 0.02 0.02 77 1016.4
20260901205230 74 175 1.7 4.3 0.00 0.02 0.02 72 1016.4
20260901205152 74 175 1.7 4.3 0.00 0.02 0.02 72 1016.4
20260901205056 74 209 0.9 4.3 0.00 0.02 0.02 74 1016.4
20260901205017 74 220 0.9 3.5 0.00 0.02 0.02 78 1016.4
20260901204847 74 147 0.9 3.5 0.00 0.02 0.02 78 1016.3
20260901204801 74 208 0.9 3.5 0.00 0.02 0.02 77 1016.3
20260901204613 74 206 0.9 2.6 0.00 0.02 0.02 78 1016.3
20260901204535 74 138 0.0 1.7 0.00 0.02 0.02 77 1016.3
20260901204337 74 138 0.0 1.7 0.00 0.02 0.02 77 1016.2
20260901204258 74 138 0.0 1.7 0.00 0.02 0.02 77 1016.2
20260901204141 74 138 0.0 2.6 0.00 0.02 0.02 77 1016.2
20260901204050 75 138 0.0 2.6 0.00 0.02 0.02 78 1016.2
20260901203953 75 138 0.0 2.6 0.00 0.02 0.02 78 1016.2
20260901203833 75 138 0.9 2.6 0.00 0.02 0.02 77 1016.2
20260901203618 75 138 0.9 2.6 0.00 0.02 0.02 76 1016.2
20260901203552 75 138 0.9 2.6 0.00 0.02 0.02 76 1016.2
20260901203436 75 138 1.7 2.6 0.00 0.02 0.02 76 1016.2
20260901203357 75 138 1.7 2.6 0.00 0.02 0.02 76 1016.2
20260901203317 75 138 1.7 2.6 0.00 0.02 0.02 75 1016.1
20260901203219 75 138 0.0 2.6 0.00 0.02 0.02 78 1016.1
20260901203120 75 163 0.0 2.6 0.00 0.02 0.02 78 1016.1
20260901202951 75 163 0.0 2.6 0.00 0.02 0.02 78 1016.2
20260901202845 75 163 0.0 2.6 0.00 0.02 0.02 77 1016.1
20260901202634 75 163 0.9 2.6 0.00 0.02 0.02 76 1016.1
20260901202550 75 163 1.7 2.6 0.00 0.02 0.02 76 1016.1
20260901202419 75 163 0.9 2.6 0.00 0.02 0.02 75 1016.1
20260901202346 75 175 0.9 2.6 0.00 0.02 0.02 75 1016.1
20260901202128 75 175 0.9 2.6 0.00 0.02 0.02 73 1016.2
20260901202050 75 148 0.9 2.6 0.00 0.02 0.02 73 1016.2
20260901201935 75 147 0.9 2.6 0.00 0.02 0.02 75 1016.1
20260901201856 75 148 0.9 2.6 0.00 0.02 0.02 75 1016.1
20260901201818 75 180 0.9 2.6 0.00 0.02 0.02 73 1016.2
20260901201722 75 180 0.9 2.6 0.00 0.02 0.02 72 1016.2
20260901201643 75 180 0.0 2.6 0.00 0.02 0.02 72 1016.1
20260901201513 75 161 0.0 1.7 0.00 0.02 0.02 74 1016.1
20260901201429 75 161 0.0 1.7 0.00 0.02 0.02 75 1016.1
20260901201248 75 161 0.0 1.7 0.00 0.02 0.02 75 1016.1
20260901201153 75 161 0.0 1.7 0.00 0.02 0.02 75 1016.1
20260901200936 75 161 0.0 2.6 0.00 0.02 0.02 75 1016.1
20260901200856 75 161 0.9 2.6 0.00 0.02 0.02 74 1016.0
20260901200740 75 161 0.9 2.6 0.00 0.02 0.02 74 1016.0
20260901200701 75 161 0.9 2.6 0.00 0.02 0.02 74 1016.0
20260901200424 75 161 0.0 4.3 0.00 0.02 0.02 74 1016.0
20260901200346 75 161 0.9 4.3 0.00 0.02 0.02 73 1016.0
20260901200214 75 161 0.9 4.3 0.00 0.02 0.02 72 1016.0
20260901200137 75 153 0.9 4.3 0.00 0.02 0.02 73 1016.0
20260901200059 75 153 0.9 4.3 0.00 0.02 0.02 72 1016.0
20260901200021 75 153 1.7 4.3 0.00 0.02 0.02 72 1016.0
20260901195937 75 186 1.7 4.3 0.00 0.02 0.02 71 1016.0
20260901195755 75 196 2.6 4.3 0.00 0.02 0.02 72 1016.0
20260901195717 75 201 2.6 4.3 0.00 0.02 0.02 70 1015.9
20260901195540 75 171 1.7 3.5 0.00 0.02 0.02 71 1016.0
20260901195440 76 159 1.7 3.5 0.00 0.02 0.02 70 1016.0
20260901195324 76 153 0.9 3.5 0.00 0.02 0.02 67 1016.0
20260901195245 76 153 0.9 3.5 0.00 0.02 0.02 67 1016.0
20260901195119 76 153 0.9 3.5 0.00 0.02 0.02 68 1016.0
20260901195034 76 153 0.9 3.5 0.00 0.02 0.02 68 1016.0
20260901194905 76 153 1.7 3.5 0.00 0.02 0.02 69 1016.0
20260901194827 76 154 0.9 3.5 0.00 0.02 0.02 69 1016.0
20260901194650 76 215 0.9 1.7 0.00 0.02 0.02 68 1016.0
20260901194612 76 215 0.9 1.7 0.00 0.02 0.02 67 1016.0
20260901194453 76 198 0.9 1.7 0.00 0.02 0.02 69 1016.0
20260901194408 76 198 0.9 2.6 0.00 0.02 0.02 69 1016.0
20260901194226 76 198 0.9 3.5 0.00 0.02 0.02 69 1016.0
20260901194127 76 198 0.9 3.5 0.00 0.02 0.02 68 1016.0
20260901193957 76 198 0.0 3.5 0.00 0.02 0.02 68 1016.0
20260901193901 76 198 0.0 3.5 0.00 0.02 0.02 68 1016.0
20260901193730 76 198 0.9 4.3 0.00 0.02 0.02 68 1016.1
20260901193635 76 198 0.9 4.3 0.00 0.02 0.02 68 1016.1
20260901193439 76 198 1.7 4.3 0.00 0.02 0.02 69 1016.1
20260901193359 76 183 1.7 4.3 0.00 0.02 0.02 69 1016.1
20260901193301 76 209 1.7 4.3 0.00 0.02 0.02 67 1016.2
20260901193223 76 209 1.7 4.3 0.00 0.02 0.02 67 1016.2
20260901193054 76 153 2.6 4.3 0.00 0.02 0.02 68 1016.2
20260901192947 76 175 2.6 4.3 0.00 0.02 0.02 68 1016.1
20260901192816 76 176 0.9 4.3 0.00 0.02 0.02 68 1016.1
20260901192737 76 178 1.7 4.3 0.00 0.02 0.02 68 1016.1
20260901192607 77 179 1.7 4.3 0.00 0.02 0.02 69 1016.1
20260901192522 77 223 0.9 4.3 0.00 0.02 0.02 68 1016.1
20260901192337 77 244 0.9 3.5 0.00 0.02 0.02 67 1016.1
20260901192251 77 238 0.0 3.5 0.00 0.02 0.02 70 1016.1
20260901192100 77 211 0.9 3.5 0.00 0.02 0.02 68 1016.1
20260901192020 77 211 1.7 3.5 0.00 0.02 0.02 68 1016.1
20260901191934 77 211 1.7 3.5 0.00 0.02 0.02 68 1016.1
20260901191833 76 238 0.9 2.6 0.00 0.02 0.02 69 1016.1
20260901191733 76 238 0.9 2.6 0.00 0.02 0.02 68 1016.1
20260901191536 76 329 1.7 3.5 0.00 0.02 0.02 70 1016.1
20260901191431 76 331 0.9 3.5 0.00 0.02 0.02 69 1016.1
20260901191332 76 355 0.9 3.5 0.00 0.02 0.02 69 1016.1
20260901191222 76 355 0.0 3.5 0.00 0.02 0.02 67 1016.1
20260901191155 76 355 0.0 3.5 0.00 0.02 0.02 67 1016.1
20260901191108 76 355 0.0 3.5 0.00 0.02 0.02 66 1016.1
20260901191030 76 355 0.0 3.5 0.00 0.02 0.02 67 1016.1
20260901190834 76 355 1.7 3.5 0.00 0.02 0.02 66 1016.1
20260901190735 76 13 1.7 2.6 0.00 0.02 0.02 68 1016.1
20260901190640 76 360 0.9 2.6 0.00 0.02 0.02 69 1016.1
20260901190601 76 233 0.0 2.6 0.00 0.02 0.02 67 1016.1
20260901190409 76 213 0.9 2.6 0.00 0.02 0.02 67 1016.2
20260901190329 76 115 0.9 3.5 0.00 0.02 0.02 68 1016.2
20260901190157 76 107 1.7 3.5 0.00 0.02 0.02 68 1016.1
20260901190119 76 115 1.7 3.5 0.00 0.02 0.02 70 1016.1
20260901190039 76 135 1.7 3.5 0.00 0.02 0.02 68 1016.1
20260901185920 76 126 0.9 3.5 0.00 0.02 0.02 70 1016.1
20260901185821 76 84 0.9 3.5 0.00 0.02 0.02 67 1016.2
20260901185652 76 101 0.9 4.3 0.00 0.02 0.02 69 1016.2
20260901185616 76 153 1.7 4.3 0.00 0.02 0.02 71 1016.2
20260901185426 76 166 2.6 4.3 0.00 0.02 0.02 68 1016.2
20260901185341 76 155 3.5 4.3 0.00 0.02 0.02 69 1016.2
20260901185129 76 171 2.6 4.3 0.00 0.02 0.02 67 1016.2
20260901185048 76 184 2.6 4.3 0.00 0.02 0.02 68 1016.2
20260901184918 76 206 2.6 4.3 0.00 0.02 0.02 69 1016.2
20260901184840 76 193 3.5 4.3 0.00 0.02 0.02 69 1016.2
20260901184623 76 172 2.6 5.2 0.00 0.02 0.02 67 1016.2
20260901184545 76 197 1.7 4.3 0.00 0.02 0.02 69 1016.2
20260901184448 76 149 0.0 3.5 0.00 0.02 0.02 71 1016.2
20260901184347 76 109 0.9 3.5 0.00 0.02 0.02 71 1016.2
20260901184308 76 109 0.9 3.5 0.00 0.02 0.02 71 1016.2
20260901184209 76 109 0.9 3.5 0.00 0.02 0.02 71 1016.2
20260901184131 76 113 1.7 3.5 0.00 0.02 0.02 69 1016.2
20260901184000 76 157 1.7 3.5 0.00 0.02 0.02 70 1016.2
20260901183920 76 146 1.7 4.3 0.00 0.02 0.02 70 1016.2
20260901183800 76 40 0.0 4.3 0.00 0.02 0.02 70 1016.2
20260901183722 76 69 0.0 4.3 0.00 0.02 0.02 69 1016.2
20260901183525 75 69 0.9 4.3 0.00 0.02 0.02 70 1016.2
20260901183446 75 69 0.9 4.3 0.00 0.02 0.02 70 1016.2
20260901183330 75 29 1.7 4.3 0.00 0.02 0.02 69 1016.2
20260901183251 75 29 2.6 4.3 0.00 0.02 0.02 69 1016.3
20260901183211 75 17 2.6 4.3 0.00 0.02 0.02 69 1016.2
20260901183115 75 15 2.6 4.3 0.00 0.02 0.02 68 1016.3
20260901183037 75 342 0.9 3.5 0.00 0.02 0.02 68 1016.3
20260901182906 75 36 0.9 3.5 0.00 0.02 0.02 70 1016.2
20260901182825 75 36 0.9 3.5 0.00 0.02 0.02 68 1016.2
20260901182635 75 14 1.7 3.5 0.00 0.02 0.02 71 1016.3
20260901182550 75 360 1.7 3.5 0.00 0.02 0.02 70 1016.3
20260901182338 75 58 0.9 2.6 0.00 0.02 0.02 70 1016.3
20260901182241 75 140 0.0 2.6 0.00 0.02 0.02 71 1016.2
20260901182112 75 140 0.9 5.2 0.00 0.02 0.02 69 1016.3
20260901182012 75 140 0.9 5.2 0.00 0.02 0.02 69 1016.3
20260901181934 75 101 0.9 5.2 0.00 0.02 0.02 69 1016.3
20260901181815 75 101 0.9 5.2 0.00 0.02 0.02 68 1016.4
20260901181737 75 101 0.9 5.2 0.00 0.02 0.02 69 1016.4
20260901181606 75 111 0.9 5.2 0.00 0.02 0.02 72 1016.4
20260901181527 75 111 1.7 5.2 0.00 0.02 0.02 72 1016.4
20260901181336 75 113 1.7 5.2 0.00 0.02 0.02 70 1016.4
20260901181250 75 105 1.7 4.3 0.00 0.02 0.02 70 1016.4
20260901181120 75 57 2.6 4.3 0.00 0.02 0.02 68 1016.4
20260901181042 75 74 2.6 4.3 0.00 0.02 0.02 69 1016.4
20260901180907 75 85 2.6 3.5 0.00 0.02 0.02 70 1016.4
20260901180828 75 57 2.6 3.5 0.00 0.02 0.02 71 1016.4
20260901180639 75 59 1.7 3.5 0.00 0.02 0.02 71 1016.4
20260901180532 75 96 0.9 3.5 0.00 0.02 0.02 69 1016.5
20260901180453 75 96 0.9 3.5 0.00 0.02 0.02 70 1016.4
20260901180359 75 96 1.7 3.5 0.00 0.02 0.02 69 1016.5
20260901180321 75 96 1.7 3.5 0.00 0.02 0.02 69 1016.5
20260901180125 75 99 1.7 3.5 0.00 0.02 0.02 71 1016.6
20260901180026 75 96 1.7 3.5 0.00 0.02 0.02 69 1016.6
20260901175930 75 107 1.7 2.6 0.00 0.02 0.02 68 1016.6
20260901175852 75 97 1.7 2.6 0.00 0.02 0.02 70 1016.6
20260901175721 75 101 0.9 2.6 0.00 0.02 0.02 71 1016.6
20260901175615 75 94 0.0 1.7 0.00 0.02 0.02 69 1016.6
20260901175444 75 65 0.0 0.0 0.00 0.02 0.02 68 1016.6
20260901175404 75 65 0.0 1.7 0.00 0.02 0.02 70 1016.6
20260901175305 75 65 0.0 1.7 0.00 0.02 0.02 69 1016.6
20260901175210 75 65 0.0 1.7 0.00 0.02 0.02 70 1016.6
20260901175132 74 65 0.0 3.5 0.00 0.02 0.02 70 1016.6
20260901174935 74 65 0.0 3.5 0.00 0.02 0.02 70 1016.6
20260901174836 74 65 0.0 3.5 0.00 0.02 0.02 70 1016.6
20260901174738 74 53 0.0 3.5 0.00 0.02 0.02 69 1016.6
20260901174628 74 53 0.0 3.5 0.00 0.02 0.02 68 1016.6
20260901174532 74 53 0.9 3.5 0.00 0.02 0.02 68 1016.6
20260901174452 74 53 1.7 3.5 0.00 0.02 0.02 69 1016.6
20260901174413 74 53 1.7 3.5 0.00 0.02 0.02 69 1016.6
20260901174315 75 53 1.7 3.5 0.00 0.02 0.02 68 1016.6
20260901174241 75 56 1.7 3.5 0.00 0.02 0.02 69 1016.6
20260901174110 75 360 0.9 3.5 0.00 0.02 0.02 70 1016.6
20260901174024 75 348 1.7 3.5 0.00 0.02 0.02 69 1016.6
20260901173834 75 338 1.7 3.5 0.00 0.02 0.02 71 1016.6
20260901173745 75 350 1.7 3.5 0.00 0.02 0.02 70 1016.6
20260901173629 74 355 1.7 4.3 0.00 0.02 0.02 71 1016.6
20260901173549 74 355 0.9 4.3 0.00 0.02 0.02 71 1016.6
20260901173510 74 332 0.9 4.3 0.00 0.02 0.02 69 1016.6
20260901173414 74 332 1.7 4.3 0.00 0.02 0.02 69 1016.6
20260901173337 74 332 1.7 4.3 0.00 0.02 0.02 69 1016.6
20260901173206 74 324 1.7 4.3 0.00 0.02 0.02 70 1016.6
20260901173119 74 339 1.7 4.3 0.00 0.02 0.02 71 1016.6
20260901172933 74 12 2.6 4.3 0.00 0.02 0.02 68 1016.6
20260901172849 74 344 3.5 4.3 0.00 0.02 0.02 70 1016.6
20260901172636 74 339 2.6 3.5 0.00 0.02 0.02 70 1016.6
20260901172551 74 346 1.7 3.5 0.00 0.02 0.02 70 1016.6
20260901172421 74 328 0.0 1.7 0.00 0.02 0.02 70 1016.6
20260901172343 74 165 0.9 1.7 0.00 0.02 0.02 70 1016.6
20260901172125 74 165 0.9 1.7 0.00 0.02 0.02 70 1016.6
20260901172045 74 130 0.9 1.7 0.00 0.02 0.02 70 1016.5
20260901171930 74 130 0.9 1.7 0.00 0.02 0.02 69 1016.5
20260901171855 74 130 0.9 1.7 0.00 0.02 0.02 71 1016.5
20260901171725 74 128 0.9 1.7 0.00 0.02 0.02 71 1016.6
20260901171619 74 128 0.9 1.7 0.00 0.02 0.02 71 1016.6
20260901171429 74 128 0.9 1.7 0.00 0.02 0.02 72 1016.5
20260901171345 74 128 0.9 1.7 0.00 0.02 0.02 71 1016.6
20260901171133 73 128 0.0 1.7 0.00 0.02 0.02 72 1016.5
20260901171027 73 128 0.0 1.7 0.00 0.02 0.02 72 1016.6
20260901170959 73 128 0.0 2.6 0.00 0.02 0.02 72 1016.5
20260901170827 73 128 0.0 2.6 0.00 0.02 0.02 75 1016.5
20260901170741 73 128 0.0 3.5 0.00 0.02 0.02 74 1016.5
20260901170549 73 128 0.9 3.5 0.00 0.02 0.02 75 1016.6
20260901170511 73 128 0.9 3.5 0.00 0.02 0.02 74 1016.6
20260901170412 73 161 0.9 3.5 0.00 0.02 0.02 71 1016.6
20260901170313 73 148 0.9 3.5 0.00 0.02 0.02 72 1016.6
20260901170214 73 178 1.7 3.5 0.00 0.02 0.02 71 1016.6
20260901170115 73 188 1.7 3.5 0.00 0.02 0.02 72 1016.7
20260901170020 73 190 2.6 3.5 0.00 0.02 0.02 72 1016.7
20260901165941 73 188 2.6 3.5 0.00 0.02 0.02 71 1016.7
20260901165811 73 194 2.6 3.5 0.00 0.02 0.02 72 1016.7
20260901165725 73 192 2.6 3.5 0.00 0.02 0.02 74 1016.7
20260901165554 73 165 1.7 3.5 0.00 0.02 0.02 73 1016.7
20260901165520 73 173 2.6 3.5 0.00 0.02 0.02 73 1016.7
20260901165323 73 174 1.7 4.3 0.00 0.02 0.02 75 1016.7
20260901165243 73 194 1.7 4.3 0.00 0.02 0.02 75 1016.7
20260901165127 72 149 0.9 4.3 0.00 0.02 0.02 73 1016.7
20260901165048 72 153 0.9 4.3 0.00 0.02 0.02 73 1016.7
20260901165009 72 159 1.7 4.3 0.00 0.02 0.02 72 1016.7
20260901164851 72 159 2.6 4.3 0.00 0.02 0.02 73 1016.7
20260901164811 72 167 2.6 4.3 0.00 0.02 0.02 72 1016.7
20260901164732 73 148 3.5 4.3 0.00 0.02 0.02 72 1016.7
20260901164613 73 159 2.6 5.2 0.00 0.02 0.02 73 1016.7
20260901164536 73 159 1.7 4.3 0.00 0.02 0.02 73 1016.7
20260901164347 72 248 1.7 2.6 0.00 0.02 0.02 73 1016.7
20260901164242 72 239 1.7 2.6 0.00 0.02 0.02 74 1016.7
20260901164110 72 207 0.9 2.6 0.00 0.02 0.02 74 1016.8
20260901164033 72 223 0.9 2.6 0.00 0.02 0.02 74 1016.8
20260901163854 72 194 0.0 2.6 0.00 0.02 0.02 73 1016.7
20260901163734 72 200 0.0 2.6 0.00 0.02 0.02 72 1016.7
20260901163656 72 200 0.9 3.5 0.00 0.02 0.02 73 1016.8
20260901163610 72 200 0.9 4.3 0.00 0.02 0.02 72 1016.8
20260901163418 72 209 0.9 4.3 0.00 0.02 0.02 72 1016.8
20260901163318 72 209 0.9 4.3 0.00 0.02 0.02 73 1016.8
20260901163201 72 209 0.9 4.3 0.00 0.02 0.02 73 1016.8
20260901163124 72 201 0.9 4.3 0.00 0.02 0.02 74 1016.8
20260901162957 72 196 1.7 4.3 0.00 0.02 0.02 73 1016.9
20260901162851 72 207 2.6 4.3 0.00 0.02 0.02 74 1016.9
20260901162719 72 205 2.6 4.3 0.00 0.02 0.02 72 1016.9
20260901162642 72 230 2.6 3.5 0.00 0.02 0.02 73 1016.9
20260901162512 72 221 1.7 3.5 0.00 0.02 0.02 74 1016.9
20260901162426 72 248 1.7 3.5 0.00 0.02 0.02 73 1016.9
20260901162257 72 232 2.6 3.5 0.00 0.02 0.02 73 1016.9
20260901162218 72 193 2.6 3.5 0.00 0.02 0.02 73 1016.9
20260901162042 72 167 1.7 4.3 0.00 0.02 0.02 72 1016.8
20260901161943 72 188 1.7 4.3 0.00 0.02 0.02 72 1016.9
20260901161846 72 172 0.9 4.3 0.00 0.02 0.02 73 1016.8
20260901161808 72 234 0.9 4.3 0.00 0.02 0.02 72 1016.9
20260901161620 72 234 0.9 4.3 0.00 0.02 0.02 72 1016.8
20260901161536 72 242 0.9 4.3 0.00 0.02 0.02 71 1016.8
20260901161404 72 200 1.7 4.3 0.00 0.02 0.02 72 1016.9
20260901161326 72 206 2.6 4.3 0.00 0.02 0.02 71 1016.9
20260901161129 72 237 0.9 3.5 0.00 0.02 0.02 72 1016.9
20260901161049 72 237 0.9 3.5 0.00 0.02 0.02 72 1016.9
20260901160944 72 237 0.9 3.5 0.00 0.02 0.02 73 1016.9
20260901160854 72 236 0.9 3.5 0.00 0.02 0.02 71 1016.9
20260901160816 72 236 0.9 3.5 0.00 0.02 0.02 71 1016.9
20260901160721 72 237 0.9 3.5 0.00 0.02 0.02 71 1016.9
20260901160642 72 246 0.9 3.5 0.00 0.02 0.02 71 1016.9
20260901160516 72 267 0.9 3.5 0.00 0.02 0.02 70 1016.9
20260901160430 72 267 1.7 3.5 0.00 0.02 0.02 69 1016.9
20260901160259 73 273 0.9 3.5 0.00 0.02 0.02 70 1016.8
20260901160220 73 273 0.9 3.5 0.00 0.02 0.02 70 1016.8
20260901160042 73 307 1.7 3.5 0.00 0.02 0.02 71 1016.8
20260901155943 73 163 1.7 3.5 0.00 0.02 0.02 70 1016.8
20260901155827 73 206 1.7 3.5 0.00 0.02 0.02 70 1016.9
20260901155747 73 225 1.7 3.5 0.00 0.02 0.02 70 1016.8
20260901155709 73 223 0.9 3.5 0.00 0.02 0.02 70 1016.9
20260901155552 73 223 0.9 3.5 0.00 0.02 0.02 69 1016.8
20260901155515 73 223 1.7 3.5 0.00 0.02 0.02 69 1016.8
20260901155349 73 252 1.7 3.5 0.00 0.02 0.02 70 1016.8
20260901155242 73 242 0.9 3.5 0.00 0.02 0.02 70 1016.8
20260901155112 73 92 0.0 2.6 0.00 0.02 0.02 74 1016.7
20260901155034 73 92 0.9 2.6 0.00 0.02 0.02 71 1016.7
20260901154836 72 61 0.9 3.5 0.00 0.02 0.02 70 1016.8
20260901154757 72 55 0.0 3.5 0.00 0.02 0.02 70 1016.8
20260901154638 72 355 0.9 3.5 0.00 0.02 0.02 71 1016.8
20260901154601 72 355 0.9 3.5 0.00 0.02 0.02 70 1016.7
20260901154340 72 355 1.7 3.5 0.00 0.02 0.02 71 1016.8
20260901154244 72 355 1.7 3.5 0.00 0.02 0.02 73 1016.8
20260901154128 72 336 2.6 3.5 0.00 0.02 0.02 73 1016.8
20260901154049 72 338 2.6 3.5 0.00 0.02 0.02 73 1016.9
20260901153954 72 355 0.9 2.6 0.00 0.02 0.02 72 1016.9
20260901153904 72 90 0.9 2.6 0.00 0.02 0.02 71 1016.9
20260901153712 72 106 0.9 2.6 0.00 0.02 0.02 72 1016.9
20260901153628 72 106 0.9 2.6 0.00 0.02 0.02 72 1016.9
20260901153437 72 106 0.9 2.6 0.00 0.02 0.02 70 1016.9
20260901153331 72 106 1.7 2.6 0.00 0.02 0.02 70 1016.9
20260901153251 72 106 1.7 2.6 0.00 0.02 0.02 70 1016.9
20260901153137 72 134 0.9 2.6 0.00 0.02 0.02 72 1016.9
20260901153058 72 144 1.7 2.6 0.00 0.02 0.02 71 1017.0
20260901153001 72 150 1.7 2.6 0.00 0.02 0.02 72 1016.9
20260901152922 71 155 1.7 3.5 0.00 0.02 0.02 73 1016.9
20260901152724 71 205 0.0 0.0 0.00 0.02 0.02 71 1016.8
20260901152625 71 205 0.0 0.0 0.00 0.02 0.02 71 1016.8
20260901152528 71 205 0.0 0.0 0.00 0.02 0.02 71 1016.8
20260901152429 71 205 0.0 0.0 0.00 0.02 0.02 70 1016.8
20260901152351 71 205 0.0 0.0 0.00 0.02 0.02 70 1016.9
20260901152258 71 205 0.0 0.0 0.00 0.02 0.02 71 1016.8
20260901152140 71 205 0.0 0.0 0.00 0.02 0.02 70 1016.9
20260901152042 71 202 0.0 0.0 0.00 0.02 0.02 73 1016.9
20260901151944 71 202 0.0 0.0 0.00 0.02 0.02 74 1016.9
20260901151825 71 350 0.0 0.0 0.00 0.02 0.02 74 1017.0
20260901151746 71 350 0.0 0.0 0.00 0.02 0.02 74 1017.0
20260901151616 70 55 0.0 0.0 0.00 0.02 0.02 75 1017.1
20260901151530 70 292 0.0 0.0 0.00 0.02 0.02 75 1017.1
20260901151340 70 255 0.0 0.0 0.00 0.02 0.02 74 1017.0
20260901151238 70 190 0.0 3.5 0.00 0.02 0.02 75 1017.0
20260901151123 70 188 0.0 3.5 0.00 0.02 0.02 76 1016.9
20260901151025 70 165 0.0 3.5 0.00 0.02 0.02 75 1016.8
20260901150947 70 165 0.0 4.3 0.00 0.02 0.02 75 1016.7
20260901150849 70 169 0.0 4.3 0.00 0.02 0.02 77 1016.7
20260901150748 70 169 0.0 4.3 0.00 0.02 0.02 76 1016.7
20260901150709 70 165 0.0 4.3 0.00 0.02 0.02 78 1016.6
20260901150612 70 171 0.0 4.3 0.00 0.02 0.02 78 1016.6
20260901150533 70 143 0.9 4.3 0.00 0.02 0.02 77 1016.6
20260901150403 70 195 1.7 4.3 0.00 0.02 0.02 77 1016.8
20260901150257 70 194 2.6 4.3 0.00 0.02 0.02 77 1016.8
20260901150130 70 192 2.6 5.2 0.00 0.02 0.02 78 1016.9
20260901150032 70 189 2.6 5.2 0.00 0.02 0.02 77 1016.9
20260901145834 70 167 1.7 3.5 0.00 0.02 0.02 79 1016.8
20260901145755 70 134 1.7 3.5 0.00 0.02 0.02 79 1016.9
20260901145637 70 185 0.9 3.5 0.00 0.02 0.02 78 1016.9
20260901145559 70 175 0.0 3.5 0.00 0.02 0.02 78 1016.9